| time (UTC) | temp F | wind direction | speed MPH | gust MPH | rain 1hr in | rain 24hr in | rain mn in | humidity % | barometer mb |
| 20260503013505 | 42 | 0 | 0.0 | 2.0 | 0.00 | 0.00 | 0.00 | 70 | 1015.2 |
| 20260503013404 | 42 | 0 | 0.0 | 2.0 | 0.00 | 0.00 | 0.00 | 70 | 1015.3 |
| 20260503013304 | 42 | 0 | 0.0 | 2.0 | 0.00 | 0.00 | 0.00 | 70 | 1015.3 |
| 20260503013204 | 42 | 0 | 0.0 | 2.0 | 0.00 | 0.00 | 0.00 | 70 | 1015.3 |
| 20260503013104 | 42 | 0 | 0.0 | 2.0 | 0.00 | 0.00 | 0.00 | 70 | 1015.3 |
| 20260503013004 | 42 | 0 | 0.0 | 2.0 | 0.00 | 0.00 | 0.00 | 70 | 1015.3 |
| 20260503012904 | 42 | 0 | 0.0 | 2.0 | 0.00 | 0.00 | 0.00 | 70 | 1015.3 |
| 20260503012804 | 42 | 0 | 0.0 | 1.0 | 0.00 | 0.00 | 0.00 | 70 | 1015.3 |
| 20260503012725 | 42 | 0 | 0.0 | 4.0 | 0.00 | 0.00 | 0.00 | 70 | 1015.3 |
| 20260503012604 | 42 | 0 | 0.0 | 4.0 | 0.00 | 0.00 | 0.00 | 70 | 1015.3 |
| 20260503012504 | 42 | 0 | 0.0 | 4.0 | 0.00 | 0.00 | 0.00 | 70 | 1015.3 |
| 20260503012404 | 42 | 0 | 0.0 | 4.0 | 0.00 | 0.00 | 0.00 | 70 | 1015.4 |
| 20260503012305 | 42 | 0 | 0.0 | 4.0 | 0.00 | 0.00 | 0.00 | 71 | 1015.4 |
| 20260503012204 | 42 | 0 | 0.0 | 4.0 | 0.00 | 0.00 | 0.00 | 71 | 1015.3 |
| 20260503012104 | 42 | 0 | 0.0 | 4.0 | 0.00 | 0.00 | 0.00 | 71 | 1015.4 |
| 20260503012004 | 42 | 0 | 0.0 | 4.0 | 0.00 | 0.00 | 0.00 | 70 | 1015.4 |
| 20260503011904 | 42 | 0 | 0.0 | 4.0 | 0.00 | 0.00 | 0.00 | 70 | 1015.3 |
| 20260503011804 | 42 | 0 | 0.0 | 4.0 | 0.00 | 0.00 | 0.00 | 70 | 1015.3 |
| 20260503011725 | 42 | 0 | 0.0 | 4.0 | 0.00 | 0.00 | 0.00 | 71 | 1015.3 |
| 20260503011604 | 42 | 0 | 0.0 | 2.0 | 0.00 | 0.00 | 0.00 | 71 | 1015.3 |
| 20260503011504 | 42 | 0 | 0.0 | 2.0 | 0.00 | 0.00 | 0.00 | 71 | 1015.3 |
| 20260503011404 | 42 | 0 | 0.0 | 2.0 | 0.00 | 0.00 | 0.00 | 71 | 1015.3 |
| 20260503011325 | 42 | 0 | 0.0 | 2.0 | 0.00 | 0.00 | 0.00 | 71 | 1015.3 |
| 20260503011204 | 42 | 0 | 0.0 | 2.0 | 0.00 | 0.00 | 0.00 | 71 | 1015.3 |
| 20260503011104 | 42 | 0 | 0.0 | 2.0 | 0.00 | 0.00 | 0.00 | 71 | 1015.3 |
| 20260503011004 | 42 | 0 | 0.0 | 2.0 | 0.00 | 0.00 | 0.00 | 71 | 1015.3 |
| 20260503010925 | 42 | 0 | 0.0 | 2.0 | 0.00 | 0.00 | 0.00 | 71 | 1015.4 |
| 20260503010804 | 42 | 0 | 0.0 | 2.0 | 0.00 | 0.00 | 0.00 | 71 | 1015.3 |
| 20260503010704 | 42 | 0 | 0.0 | 2.0 | 0.00 | 0.00 | 0.00 | 71 | 1015.3 |
| 20260503010604 | 42 | 0 | 0.0 | 2.0 | 0.00 | 0.00 | 0.00 | 70 | 1015.4 |
| 20260503010504 | 42 | 0 | 0.0 | 2.0 | 0.00 | 0.00 | 0.00 | 70 | 1015.4 |
| 20260503010404 | 42 | 0 | 0.0 | 2.0 | 0.00 | 0.00 | 0.00 | 70 | 1015.3 |
| 20260503010325 | 42 | 0 | 0.0 | 3.0 | 0.00 | 0.00 | 0.00 | 70 | 1015.3 |
| 20260503010204 | 42 | 0 | 0.0 | 3.0 | 0.00 | 0.00 | 0.00 | 70 | 1015.3 |
| 20260503010104 | 42 | 0 | 0.0 | 3.0 | 0.00 | 0.00 | 0.00 | 70 | 1015.3 |
| 20260503010004 | 42 | 0 | 0.0 | 3.0 | 0.00 | 0.00 | 0.00 | 70 | 1015.3 |
| 20260503005904 | 42 | 0 | 0.0 | 3.0 | 0.00 | 0.00 | 0.00 | 70 | 1015.3 |
| 20260503005804 | 42 | 230 | 1.0 | 3.0 | 0.00 | 0.00 | 0.00 | 71 | 1015.3 |
| 20260503005704 | 42 | 226 | 1.0 | 3.0 | 0.00 | 0.00 | 0.00 | 70 | 1015.3 |
| 20260503005604 | 42 | 227 | 1.0 | 3.0 | 0.00 | 0.00 | 0.00 | 70 | 1015.3 |
| 20260503005525 | 42 | 222 | 1.0 | 5.0 | 0.00 | 0.00 | 0.00 | 70 | 1015.3 |
| 20260503005404 | 42 | 220 | 1.0 | 5.0 | 0.00 | 0.00 | 0.00 | 71 | 1015.3 |
| 20260503005305 | 42 | 230 | 1.0 | 5.0 | 0.00 | 0.00 | 0.00 | 70 | 1015.3 |
| 20260503005204 | 42 | 232 | 2.0 | 5.0 | 0.00 | 0.00 | 0.00 | 70 | 1015.3 |
| 20260503005104 | 42 | 239 | 2.0 | 8.0 | 0.00 | 0.00 | 0.00 | 70 | 1015.3 |
| 20260503005004 | 42 | 240 | 2.0 | 8.0 | 0.00 | 0.00 | 0.00 | 70 | 1015.3 |
| 20260503004925 | 42 | 241 | 2.0 | 8.0 | 0.00 | 0.00 | 0.00 | 70 | 1015.3 |
| 20260503004825 | 42 | 241 | 2.0 | 8.0 | 0.00 | 0.00 | 0.00 | 70 | 1015.4 |
| 20260503004705 | 43 | 242 | 2.0 | 8.0 | 0.00 | 0.00 | 0.00 | 69 | 1015.4 |
| 20260503004604 | 43 | 240 | 2.0 | 8.0 | 0.00 | 0.00 | 0.00 | 69 | 1015.4 |
| 20260503004504 | 43 | 243 | 2.0 | 8.0 | 0.00 | 0.00 | 0.00 | 69 | 1015.4 |
| 20260503004404 | 43 | 242 | 2.0 | 8.0 | 0.00 | 0.00 | 0.00 | 69 | 1015.4 |
| 20260503004304 | 43 | 240 | 2.0 | 8.0 | 0.00 | 0.00 | 0.00 | 69 | 1015.3 |
| 20260503004204 | 43 | 241 | 2.0 | 8.0 | 0.00 | 0.00 | 0.00 | 68 | 1015.3 |
| 20260503004104 | 43 | 234 | 1.0 | 6.0 | 0.00 | 0.00 | 0.00 | 68 | 1015.3 |
| 20260503004004 | 43 | 233 | 1.0 | 6.0 | 0.00 | 0.00 | 0.00 | 67 | 1015.3 |
| 20260503003925 | 43 | 231 | 1.0 | 6.0 | 0.00 | 0.00 | 0.00 | 67 | 1015.3 |
| 20260503003804 | 43 | 233 | 1.0 | 6.0 | 0.00 | 0.00 | 0.00 | 67 | 1015.3 |
| 20260503003704 | 43 | 237 | 1.0 | 6.0 | 0.00 | 0.00 | 0.00 | 66 | 1015.3 |
| 20260503003604 | 43 | 236 | 1.0 | 6.0 | 0.00 | 0.00 | 0.00 | 66 | 1015.3 |
| 20260503003504 | 43 | 234 | 1.0 | 6.0 | 0.00 | 0.00 | 0.00 | 66 | 1015.4 |
| 20260503003404 | 43 | 234 | 1.0 | 6.0 | 0.00 | 0.00 | 0.00 | 66 | 1015.4 |
| 20260503003304 | 43 | 235 | 1.0 | 6.0 | 0.00 | 0.00 | 0.00 | 65 | 1015.4 |
| 20260503003204 | 43 | 232 | 1.0 | 4.0 | 0.00 | 0.00 | 0.00 | 65 | 1015.4 |
| 20260503003104 | 43 | 231 | 1.0 | 5.0 | 0.00 | 0.00 | 0.00 | 65 | 1015.4 |
| 20260503003004 | 43 | 230 | 2.0 | 5.0 | 0.00 | 0.00 | 0.00 | 66 | 1015.4 |
| 20260503002925 | 43 | 231 | 2.0 | 5.0 | 0.00 | 0.00 | 0.00 | 65 | 1015.4 |
| 20260503002825 | 43 | 230 | 2.0 | 5.0 | 0.00 | 0.00 | 0.00 | 65 | 1015.4 |
| 20260503002704 | 44 | 232 | 2.0 | 6.0 | 0.00 | 0.00 | 0.00 | 64 | 1015.5 |
| 20260503002604 | 44 | 237 | 2.0 | 6.0 | 0.00 | 0.00 | 0.00 | 64 | 1015.5 |
| 20260503002505 | 44 | 242 | 2.0 | 6.0 | 0.00 | 0.00 | 0.00 | 64 | 1015.5 |
| 20260503002404 | 44 | 243 | 3.0 | 6.0 | 0.00 | 0.00 | 0.00 | 64 | 1015.5 |
| 20260503002305 | 44 | 244 | 3.0 | 6.0 | 0.00 | 0.00 | 0.00 | 63 | 1015.5 |
| 20260503002204 | 44 | 245 | 3.0 | 6.0 | 0.00 | 0.00 | 0.00 | 63 | 1015.5 |
| 20260503002104 | 44 | 248 | 3.0 | 6.0 | 0.00 | 0.00 | 0.00 | 63 | 1015.5 |
| 20260503002004 | 44 | 249 | 3.0 | 6.0 | 0.00 | 0.00 | 0.00 | 62 | 1015.4 |
| 20260503001925 | 44 | 248 | 3.0 | 6.0 | 0.00 | 0.00 | 0.00 | 62 | 1015.4 |
| 20260503001825 | 44 | 250 | 3.0 | 6.0 | 0.00 | 0.00 | 0.00 | 62 | 1015.5 |
| 20260503001704 | 44 | 246 | 4.0 | 8.0 | 0.00 | 0.00 | 0.00 | 61 | 1015.4 |
| 20260503001604 | 44 | 246 | 3.0 | 8.0 | 0.00 | 0.00 | 0.00 | 61 | 1015.4 |
| 20260503001504 | 44 | 245 | 3.0 | 8.0 | 0.00 | 0.00 | 0.00 | 61 | 1015.4 |
| 20260503001404 | 44 | 246 | 3.0 | 8.0 | 0.00 | 0.00 | 0.00 | 61 | 1015.5 |
| 20260503001304 | 44 | 244 | 3.0 | 8.0 | 0.00 | 0.00 | 0.00 | 61 | 1015.5 |
| 20260503001204 | 44 | 242 | 3.0 | 8.0 | 0.00 | 0.00 | 0.00 | 61 | 1015.5 |
| 20260503001103 | 44 | 239 | 3.0 | 8.0 | 0.00 | 0.00 | 0.00 | 61 | 1015.5 |
| 20260503001004 | 44 | 238 | 3.0 | 8.0 | 0.00 | 0.00 | 0.00 | 61 | 1015.5 |
| 20260503000904 | 44 | 237 | 3.0 | 8.0 | 0.00 | 0.00 | 0.00 | 60 | 1015.5 |
| 20260503000804 | 44 | 238 | 3.0 | 8.0 | 0.00 | 0.00 | 0.00 | 60 | 1015.5 |
| 20260503000725 | 44 | 237 | 3.0 | 8.0 | 0.00 | 0.00 | 0.00 | 60 | 1015.5 |
| 20260503000604 | 44 | 232 | 3.0 | 8.0 | 0.00 | 0.00 | 0.00 | 59 | 1015.5 |
| 20260503000504 | 44 | 227 | 2.0 | 8.0 | 0.00 | 0.00 | 0.00 | 58 | 1015.5 |
| 20260503000404 | 44 | 224 | 2.0 | 8.0 | 0.00 | 0.00 | 0.00 | 59 | 1015.5 |
| 20260503000304 | 44 | 221 | 2.0 | 8.0 | 0.00 | 0.00 | 0.00 | 59 | 1015.5 |
| 20260503000226 | 44 | 224 | 2.0 | 8.0 | 0.00 | 0.00 | 0.00 | 59 | 1015.5 |
| 20260503000103 | 44 | 227 | 2.0 | 8.0 | 0.00 | 0.00 | 0.00 | 59 | 1015.5 |
| 20260503000004 | 45 | 226 | 2.0 | 8.0 | 0.00 | 0.00 | 0.00 | 59 | 1015.5 |
| 20260502235925 | 45 | 224 | 2.0 | 8.0 | 0.00 | 0.00 | 0.00 | 59 | 1015.6 |
| 20260502235825 | 45 | 217 | 2.0 | 8.0 | 0.00 | 0.00 | 0.00 | 58 | 1015.6 |
| 20260502235704 | 45 | 224 | 2.0 | 5.0 | 0.00 | 0.00 | 0.00 | 59 | 1015.5 |
| 20260502235625 | 45 | 230 | 2.0 | 7.0 | 0.00 | 0.00 | 0.00 | 60 | 1015.5 |
| 20260502235504 | 45 | 233 | 2.0 | 7.0 | 0.00 | 0.00 | 0.00 | 60 | 1015.5 |
| 20260502235404 | 45 | 230 | 2.0 | 7.0 | 0.00 | 0.00 | 0.00 | 60 | 1015.6 |
| 20260502235325 | 45 | 229 | 2.0 | 7.0 | 0.00 | 0.00 | 0.00 | 60 | 1015.6 |
| 20260502235204 | 45 | 229 | 2.0 | 7.0 | 0.00 | 0.00 | 0.00 | 59 | 1015.5 |
| 20260502235104 | 45 | 229 | 3.0 | 7.0 | 0.00 | 0.00 | 0.00 | 58 | 1015.6 |
| 20260502235004 | 45 | 233 | 3.0 | 7.0 | 0.00 | 0.00 | 0.00 | 58 | 1015.6 |
| 20260502234925 | 46 | 238 | 3.0 | 7.0 | 0.00 | 0.00 | 0.00 | 59 | 1015.6 |
| 20260502234804 | 46 | 246 | 3.0 | 7.0 | 0.00 | 0.00 | 0.00 | 58 | 1015.6 |
| 20260502234704 | 46 | 246 | 3.0 | 7.0 | 0.00 | 0.00 | 0.00 | 58 | 1015.6 |
| 20260502234604 | 46 | 247 | 3.0 | 7.0 | 0.00 | 0.00 | 0.00 | 58 | 1015.6 |
| 20260502234504 | 46 | 246 | 3.0 | 7.0 | 0.00 | 0.00 | 0.00 | 58 | 1015.6 |
| 20260502234403 | 46 | 248 | 3.0 | 8.0 | 0.00 | 0.00 | 0.00 | 58 | 1015.6 |
| 20260502234325 | 46 | 249 | 3.0 | 8.0 | 0.00 | 0.00 | 0.00 | 57 | 1015.6 |
| 20260502234204 | 46 | 248 | 4.0 | 8.0 | 0.00 | 0.00 | 0.00 | 57 | 1015.7 |
| 20260502234104 | 46 | 246 | 4.0 | 8.0 | 0.00 | 0.00 | 0.00 | 57 | 1015.7 |
| 20260502234004 | 46 | 243 | 4.0 | 8.0 | 0.00 | 0.00 | 0.00 | 57 | 1015.7 |
| 20260502233926 | 46 | 240 | 4.0 | 8.0 | 0.00 | 0.00 | 0.00 | 57 | 1015.7 |
| 20260502233804 | 46 | 233 | 3.0 | 8.0 | 0.00 | 0.00 | 0.00 | 57 | 1015.7 |
| 20260502233704 | 46 | 231 | 3.0 | 8.0 | 0.00 | 0.00 | 0.00 | 56 | 1015.7 |
| 20260502233604 | 46 | 230 | 3.0 | 8.0 | 0.00 | 0.00 | 0.00 | 56 | 1015.7 |
| 20260502233504 | 46 | 226 | 3.0 | 9.0 | 0.00 | 0.00 | 0.00 | 56 | 1015.7 |
| 20260502233403 | 46 | 224 | 3.0 | 9.0 | 0.00 | 0.00 | 0.00 | 56 | 1015.7 |
| 20260502233304 | 46 | 224 | 3.0 | 9.0 | 0.00 | 0.00 | 0.00 | 55 | 1015.7 |
| 20260502233204 | 46 | 227 | 3.0 | 9.0 | 0.00 | 0.00 | 0.00 | 55 | 1015.7 |
| 20260502233104 | 47 | 232 | 3.0 | 9.0 | 0.00 | 0.00 | 0.00 | 55 | 1015.8 |
| 20260502233004 | 47 | 235 | 3.0 | 11.0 | 0.00 | 0.00 | 0.00 | 55 | 1015.7 |
| 20260502232904 | 47 | 240 | 3.0 | 11.0 | 0.00 | 0.00 | 0.00 | 55 | 1015.7 |
| 20260502232804 | 47 | 241 | 3.0 | 11.0 | 0.00 | 0.00 | 0.00 | 55 | 1015.8 |
| 20260502232704 | 47 | 242 | 3.0 | 11.0 | 0.00 | 0.00 | 0.00 | 54 | 1015.8 |
| 20260502232604 | 47 | 241 | 3.0 | 11.0 | 0.00 | 0.00 | 0.00 | 54 | 1015.8 |
| 20260502232504 | 47 | 244 | 3.0 | 11.0 | 0.00 | 0.00 | 0.00 | 55 | 1015.8 |
| 20260502232404 | 46 | 248 | 3.0 | 11.0 | 0.00 | 0.00 | 0.00 | 53 | 1015.8 |
| 20260502232305 | 47 | 247 | 3.0 | 11.0 | 0.00 | 0.00 | 0.00 | 52 | 1015.8 |
| 20260502232204 | 47 | 247 | 4.0 | 11.0 | 0.00 | 0.00 | 0.00 | 53 | 1015.8 |
| 20260502232104 | 47 | 248 | 4.0 | 11.0 | 0.00 | 0.00 | 0.00 | 53 | 1015.8 |
| 20260502232025 | 47 | 249 | 4.0 | 11.0 | 0.00 | 0.00 | 0.00 | 52 | 1015.8 |
| 20260502231904 | 47 | 246 | 3.0 | 8.0 | 0.00 | 0.00 | 0.00 | 51 | 1015.8 |
| 20260502231804 | 47 | 245 | 4.0 | 8.0 | 0.00 | 0.00 | 0.00 | 51 | 1015.8 |
| 20260502231703 | 47 | 245 | 4.0 | 8.0 | 0.00 | 0.00 | 0.00 | 52 | 1015.8 |
| 20260502231624 | 47 | 246 | 4.0 | 9.0 | 0.00 | 0.00 | 0.00 | 52 | 1015.8 |
| 20260502231504 | 47 | 250 | 4.0 | 9.0 | 0.00 | 0.00 | 0.00 | 52 | 1015.8 |
| 20260502231425 | 47 | 250 | 4.0 | 9.0 | 0.00 | 0.00 | 0.00 | 51 | 1015.8 |
| 20260502231304 | 47 | 250 | 4.0 | 9.0 | 0.00 | 0.00 | 0.00 | 50 | 1015.8 |
| 20260502231225 | 47 | 249 | 4.0 | 9.0 | 0.00 | 0.00 | 0.00 | 49 | 1015.8 |
| 20260502231104 | 47 | 248 | 4.0 | 9.0 | 0.00 | 0.00 | 0.00 | 48 | 1015.8 |
| 20260502231003 | 47 | 250 | 4.0 | 9.0 | 0.00 | 0.00 | 0.00 | 49 | 1015.9 |
| 20260502230904 | 47 | 252 | 4.0 | 9.0 | 0.00 | 0.00 | 0.00 | 50 | 1015.9 |
| 20260502230803 | 47 | 252 | 4.0 | 9.0 | 0.00 | 0.00 | 0.00 | 51 | 1015.9 |
| 20260502230725 | 47 | 250 | 4.0 | 9.0 | 0.00 | 0.00 | 0.00 | 49 | 1015.9 |
| 20260502230625 | 47 | 249 | 4.0 | 9.0 | 0.00 | 0.00 | 0.00 | 48 | 1015.8 |
| 20260502230504 | 47 | 248 | 3.0 | 9.0 | 0.00 | 0.00 | 0.00 | 48 | 1015.9 |
| 20260502230425 | 47 | 247 | 3.0 | 9.0 | 0.00 | 0.00 | 0.00 | 47 | 1015.9 |
| 20260502230304 | 47 | 245 | 4.0 | 9.0 | 0.00 | 0.00 | 0.00 | 46 | 1015.9 |
| 20260502230204 | 47 | 248 | 4.0 | 11.0 | 0.00 | 0.00 | 0.00 | 46 | 1015.9 |
| 20260502230104 | 47 | 244 | 4.0 | 11.0 | 0.00 | 0.00 | 0.00 | 48 | 1015.9 |
| 20260502230004 | 47 | 241 | 4.0 | 11.0 | 0.00 | 0.00 | 0.00 | 49 | 1015.9 |
| 20260502225924 | 47 | 238 | 4.0 | 11.0 | 0.00 | 0.00 | 0.00 | 49 | 1015.9 |
| 20260502225825 | 47 | 237 | 4.0 | 11.0 | 0.00 | 0.00 | 0.00 | 48 | 1015.8 |
| 20260502225704 | 47 | 240 | 4.0 | 11.0 | 0.00 | 0.00 | 0.00 | 48 | 1015.9 |
| 20260502225604 | 47 | 240 | 4.0 | 11.0 | 0.00 | 0.00 | 0.00 | 48 | 1015.9 |
| 20260502225504 | 47 | 235 | 4.0 | 11.0 | 0.00 | 0.00 | 0.00 | 46 | 1015.9 |
| 20260502225404 | 47 | 236 | 4.0 | 11.0 | 0.00 | 0.00 | 0.00 | 45 | 1016.0 |
| 20260502225325 | 47 | 235 | 4.0 | 11.0 | 0.00 | 0.00 | 0.00 | 45 | 1016.0 |
| 20260502225203 | 48 | 230 | 3.0 | 10.0 | 0.00 | 0.00 | 0.00 | 47 | 1015.9 |
| 20260502225104 | 48 | 229 | 3.0 | 8.0 | 0.00 | 0.00 | 0.00 | 49 | 1015.9 |
| 20260502225003 | 48 | 229 | 3.0 | 8.0 | 0.00 | 0.00 | 0.00 | 48 | 1016.0 |
| 20260502224904 | 48 | 230 | 3.0 | 8.0 | 0.00 | 0.00 | 0.00 | 49 | 1015.9 |
| 20260502224804 | 48 | 229 | 3.0 | 8.0 | 0.00 | 0.00 | 0.00 | 49 | 1015.9 |
| 20260502224704 | 48 | 226 | 3.0 | 7.0 | 0.00 | 0.00 | 0.00 | 48 | 1015.9 |
| 20260502224604 | 48 | 226 | 3.0 | 7.0 | 0.00 | 0.00 | 0.00 | 46 | 1016.0 |
| 20260502224504 | 48 | 231 | 3.0 | 7.0 | 0.00 | 0.00 | 0.00 | 46 | 1016.0 |
| 20260502224403 | 48 | 228 | 3.0 | 7.0 | 0.00 | 0.00 | 0.00 | 48 | 1016.0 |
| 20260502224304 | 48 | 230 | 3.0 | 13.0 | 0.00 | 0.00 | 0.00 | 48 | 1016.0 |
| 20260502224203 | 48 | 238 | 4.0 | 13.0 | 0.00 | 0.00 | 0.00 | 48 | 1016.0 |
| 20260502224104 | 48 | 245 | 4.0 | 13.0 | 0.00 | 0.00 | 0.00 | 48 | 1016.1 |
| 20260502224004 | 48 | 245 | 4.0 | 13.0 | 0.00 | 0.00 | 0.00 | 48 | 1016.1 |
| 20260502223904 | 48 | 248 | 4.0 | 13.0 | 0.00 | 0.00 | 0.00 | 50 | 1016.0 |
| 20260502223804 | 48 | 246 | 4.0 | 13.0 | 0.00 | 0.00 | 0.00 | 50 | 1016.0 |
| 20260502223704 | 48 | 247 | 4.0 | 13.0 | 0.00 | 0.00 | 0.00 | 50 | 1016.1 |
| 20260502223603 | 47 | 247 | 5.0 | 13.0 | 0.00 | 0.00 | 0.00 | 50 | 1016.0 |
| 20260502223504 | 47 | 248 | 5.0 | 13.0 | 0.00 | 0.00 | 0.00 | 49 | 1016.0 |
| 20260502223403 | 47 | 254 | 5.0 | 13.0 | 0.00 | 0.00 | 0.00 | 48 | 1016.1 |
| 20260502223303 | 47 | 256 | 5.0 | 12.0 | 0.00 | 0.00 | 0.00 | 47 | 1016.1 |
| 20260502223224 | 48 | 256 | 5.0 | 12.0 | 0.00 | 0.00 | 0.00 | 48 | 1016.1 |
| 20260502223104 | 48 | 250 | 4.0 | 9.0 | 0.00 | 0.00 | 0.00 | 47 | 1016.1 |
| 20260502223004 | 48 | 252 | 4.0 | 9.0 | 0.00 | 0.00 | 0.00 | 48 | 1016.1 |
| 20260502222904 | 48 | 249 | 4.0 | 9.0 | 0.00 | 0.00 | 0.00 | 49 | 1016.1 |
| 20260502222805 | 48 | 248 | 4.0 | 9.0 | 0.00 | 0.00 | 0.00 | 50 | 1016.2 |
| 20260502222704 | 48 | 249 | 4.0 | 9.0 | 0.00 | 0.00 | 0.00 | 50 | 1016.2 |
| 20260502222603 | 48 | 250 | 4.0 | 9.0 | 0.00 | 0.00 | 0.00 | 47 | 1016.1 |
| 20260502222503 | 48 | 249 | 4.0 | 9.0 | 0.00 | 0.00 | 0.00 | 46 | 1016.1 |
| 20260502222404 | 48 | 243 | 4.0 | 9.0 | 0.00 | 0.00 | 0.00 | 45 | 1016.2 |
| 20260502222305 | 48 | 241 | 4.0 | 9.0 | 0.00 | 0.00 | 0.00 | 46 | 1016.1 |
| 20260502222203 | 48 | 239 | 3.0 | 9.0 | 0.00 | 0.00 | 0.00 | 47 | 1016.1 |
| 20260502222125 | 48 | 237 | 3.0 | 8.0 | 0.00 | 0.00 | 0.00 | 48 | 1016.2 |
| 20260502222004 | 48 | 239 | 4.0 | 10.0 | 0.00 | 0.00 | 0.00 | 49 | 1016.2 |
| 20260502221904 | 48 | 243 | 4.0 | 12.0 | 0.00 | 0.00 | 0.00 | 48 | 1016.1 |
| 20260502221803 | 48 | 245 | 4.0 | 12.0 | 0.00 | 0.00 | 0.00 | 48 | 1016.1 |
| 20260502221703 | 48 | 245 | 5.0 | 12.0 | 0.00 | 0.00 | 0.00 | 47 | 1016.1 |
| 20260502221604 | 48 | 245 | 4.0 | 12.0 | 0.00 | 0.00 | 0.00 | 49 | 1016.1 |
| 20260502221503 | 48 | 246 | 5.0 | 12.0 | 0.00 | 0.00 | 0.00 | 49 | 1016.1 |
| 20260502221424 | 48 | 248 | 5.0 | 12.0 | 0.00 | 0.00 | 0.00 | 49 | 1016.1 |
| 20260502221303 | 47 | 248 | 5.0 | 12.0 | 0.00 | 0.00 | 0.00 | 48 | 1016.1 |
| 20260502221204 | 47 | 249 | 5.0 | 12.0 | 0.00 | 0.00 | 0.00 | 46 | 1016.1 |
| 20260502221104 | 47 | 249 | 5.0 | 12.0 | 0.00 | 0.00 | 0.00 | 47 | 1016.2 |
| 20260502221004 | 48 | 248 | 4.0 | 12.0 | 0.00 | 0.00 | 0.00 | 47 | 1016.2 |
| 20260502220925 | 48 | 248 | 4.0 | 12.0 | 0.00 | 0.00 | 0.00 | 48 | 1016.2 |
| 20260502220804 | 48 | 251 | 4.0 | 10.0 | 0.00 | 0.00 | 0.00 | 46 | 1016.2 |
| 20260502220704 | 48 | 251 | 4.0 | 10.0 | 0.00 | 0.00 | 0.00 | 46 | 1016.2 |
| 20260502220624 | 48 | 251 | 4.0 | 10.0 | 0.00 | 0.00 | 0.00 | 45 | 1016.2 |
| 20260502220503 | 48 | 249 | 4.0 | 10.0 | 0.00 | 0.00 | 0.00 | 45 | 1016.2 |
| 20260502220424 | 48 | 249 | 4.0 | 10.0 | 0.00 | 0.00 | 0.00 | 46 | 1016.2 |
| 20260502220325 | 48 | 250 | 4.0 | 10.0 | 0.00 | 0.00 | 0.00 | 47 | 1016.2 |
| 20260502220204 | 48 | 249 | 5.0 | 11.0 | 0.00 | 0.00 | 0.00 | 48 | 1016.2 |
| 20260502220104 | 48 | 250 | 5.0 | 11.0 | 0.00 | 0.00 | 0.00 | 47 | 1016.2 |
| 20260502220004 | 48 | 250 | 5.0 | 11.0 | 0.00 | 0.00 | 0.00 | 47 | 1016.2 |
| 20260502215904 | 48 | 247 | 5.0 | 11.0 | 0.00 | 0.00 | 0.00 | 47 | 1016.2 |
| 20260502215804 | 48 | 247 | 5.0 | 11.0 | 0.00 | 0.00 | 0.00 | 47 | 1016.2 |
| 20260502215703 | 48 | 248 | 5.0 | 11.0 | 0.00 | 0.00 | 0.00 | 48 | 1016.2 |
| 20260502215624 | 48 | 250 | 5.0 | 11.0 | 0.00 | 0.00 | 0.00 | 48 | 1016.3 |
| 20260502215524 | 48 | 252 | 5.0 | 11.0 | 0.00 | 0.00 | 0.00 | 48 | 1016.3 |
| 20260502215403 | 48 | 253 | 5.0 | 11.0 | 0.00 | 0.00 | 0.00 | 49 | 1016.2 |
| 20260502215305 | 48 | 254 | 5.0 | 11.0 | 0.00 | 0.00 | 0.00 | 49 | 1016.2 |
| 20260502215204 | 48 | 257 | 4.0 | 11.0 | 0.00 | 0.00 | 0.00 | 49 | 1016.2 |
| 20260502215104 | 48 | 257 | 4.0 | 11.0 | 0.00 | 0.00 | 0.00 | 49 | 1016.2 |
| 20260502215003 | 48 | 259 | 4.0 | 8.0 | 0.00 | 0.00 | 0.00 | 48 | 1016.2 |
| 20260502214924 | 48 | 262 | 4.0 | 8.0 | 0.00 | 0.00 | 0.00 | 48 | 1016.2 |
| 20260502214804 | 48 | 260 | 4.0 | 8.0 | 0.00 | 0.00 | 0.00 | 46 | 1016.2 |
| 20260502214703 | 48 | 259 | 5.0 | 8.0 | 0.00 | 0.00 | 0.00 | 45 | 1016.2 |
| 20260502214603 | 48 | 257 | 5.0 | 11.0 | 0.00 | 0.00 | 0.00 | 45 | 1016.2 |
| 20260502214504 | 48 | 256 | 5.0 | 11.0 | 0.00 | 0.00 | 0.00 | 46 | 1016.3 |
| 20260502214425 | 48 | 255 | 5.0 | 11.0 | 0.00 | 0.00 | 0.00 | 46 | 1016.3 |
| 20260502214304 | 48 | 255 | 6.0 | 12.0 | 0.00 | 0.00 | 0.00 | 47 | 1016.2 |
| 20260502214225 | 48 | 253 | 6.0 | 12.0 | 0.00 | 0.00 | 0.00 | 46 | 1016.2 |
| 20260502214103 | 47 | 253 | 6.0 | 12.0 | 0.00 | 0.00 | 0.00 | 47 | 1016.2 |
| 20260502214004 | 47 | 251 | 6.0 | 12.0 | 0.00 | 0.00 | 0.00 | 47 | 1016.3 |
| 20260502213903 | 47 | 253 | 6.0 | 12.0 | 0.00 | 0.00 | 0.00 | 44 | 1016.3 |
| 20260502213803 | 47 | 253 | 6.0 | 12.0 | 0.00 | 0.00 | 0.00 | 43 | 1016.3 |
| 20260502213703 | 47 | 254 | 5.0 | 12.0 | 0.00 | 0.00 | 0.00 | 44 | 1016.3 |
| 20260502213603 | 47 | 254 | 5.0 | 12.0 | 0.00 | 0.00 | 0.00 | 44 | 1016.3 |
| 20260502213503 | 47 | 255 | 5.0 | 12.0 | 0.00 | 0.00 | 0.00 | 43 | 1016.3 |
| 20260502213425 | 47 | 256 | 5.0 | 12.0 | 0.00 | 0.00 | 0.00 | 43 | 1016.3 |
| 20260502213304 | 48 | 255 | 4.0 | 12.0 | 0.00 | 0.00 | 0.00 | 44 | 1016.2 |
| 20260502213204 | 48 | 255 | 5.0 | 12.0 | 0.00 | 0.00 | 0.00 | 45 | 1016.3 |
| 20260502213103 | 48 | 255 | 5.0 | 11.0 | 0.00 | 0.00 | 0.00 | 46 | 1016.3 |
| 20260502213004 | 48 | 254 | 4.0 | 11.0 | 0.00 | 0.00 | 0.00 | 46 | 1016.3 |
| 20260502212903 | 48 | 251 | 5.0 | 11.0 | 0.00 | 0.00 | 0.00 | 45 | 1016.3 |
| 20260502212803 | 48 | 252 | 5.0 | 11.0 | 0.00 | 0.00 | 0.00 | 46 | 1016.2 |
| 20260502212703 | 48 | 251 | 5.0 | 11.0 | 0.00 | 0.00 | 0.00 | 46 | 1016.2 |
| 20260502212603 | 48 | 250 | 5.0 | 11.0 | 0.00 | 0.00 | 0.00 | 47 | 1016.2 |
| 20260502212504 | 48 | 250 | 5.0 | 11.0 | 0.00 | 0.00 | 0.00 | 46 | 1016.2 |
| 20260502212404 | 48 | 248 | 5.0 | 11.0 | 0.00 | 0.00 | 0.00 | 46 | 1016.3 |
| 20260502212325 | 48 | 248 | 5.0 | 11.0 | 0.00 | 0.00 | 0.00 | 46 | 1016.3 |
| 20260502212204 | 48 | 248 | 5.0 | 11.0 | 0.00 | 0.00 | 0.00 | 47 | 1016.2 |
| 20260502212104 | 47 | 249 | 5.0 | 11.0 | 0.00 | 0.00 | 0.00 | 47 | 1016.2 |
| 20260502212024 | 47 | 250 | 5.0 | 11.0 | 0.00 | 0.00 | 0.00 | 47 | 1016.2 |
| 20260502211903 | 47 | 249 | 5.0 | 11.0 | 0.00 | 0.00 | 0.00 | 47 | 1016.3 |
| 20260502211803 | 48 | 248 | 5.0 | 11.0 | 0.00 | 0.00 | 0.00 | 46 | 1016.3 |
| 20260502211703 | 48 | 248 | 4.0 | 11.0 | 0.00 | 0.00 | 0.00 | 45 | 1016.2 |
| 20260502211603 | 48 | 248 | 4.0 | 11.0 | 0.00 | 0.00 | 0.00 | 47 | 1016.2 |
| 20260502211504 | 48 | 249 | 4.0 | 11.0 | 0.00 | 0.00 | 0.00 | 47 | 1016.2 |
| 20260502211404 | 48 | 250 | 4.0 | 11.0 | 0.00 | 0.00 | 0.00 | 47 | 1016.2 |
| 20260502211304 | 48 | 250 | 4.0 | 11.0 | 0.00 | 0.00 | 0.00 | 47 | 1016.2 |
| 20260502211203 | 48 | 249 | 4.0 | 11.0 | 0.00 | 0.00 | 0.00 | 47 | 1016.2 |
| 20260502211104 | 48 | 248 | 4.0 | 11.0 | 0.00 | 0.00 | 0.00 | 46 | 1016.2 |
| 20260502211025 | 48 | 247 | 4.0 | 11.0 | 0.00 | 0.00 | 0.00 | 47 | 1016.2 |
| 20260502210903 | 48 | 249 | 4.0 | 10.0 | 0.00 | 0.00 | 0.00 | 49 | 1016.3 |
| 20260502210824 | 48 | 250 | 4.0 | 10.0 | 0.00 | 0.00 | 0.00 | 49 | 1016.3 |
| 20260502210703 | 48 | 246 | 4.0 | 10.0 | 0.00 | 0.00 | 0.00 | 46 | 1016.4 |
| 20260502210603 | 48 | 249 | 5.0 | 11.0 | 0.00 | 0.00 | 0.00 | 45 | 1016.4 |
| 20260502210504 | 48 | 247 | 4.0 | 11.0 | 0.00 | 0.00 | 0.00 | 45 | 1016.4 |
| 20260502210404 | 48 | 246 | 4.0 | 11.0 | 0.00 | 0.00 | 0.00 | 47 | 1016.3 |
| 20260502210324 | 48 | 245 | 4.0 | 11.0 | 0.00 | 0.00 | 0.00 | 47 | 1016.3 |
| 20260502210224 | 48 | 247 | 4.0 | 11.0 | 0.00 | 0.00 | 0.00 | 46 | 1016.4 |
| 20260502210103 | 48 | 249 | 4.0 | 11.0 | 0.00 | 0.00 | 0.00 | 46 | 1016.4 |
| 20260502210004 | 48 | 252 | 4.0 | 11.0 | 0.00 | 0.00 | 0.00 | 48 | 1016.4 |
| 20260502205903 | 48 | 256 | 4.0 | 11.0 | 0.00 | 0.00 | 0.00 | 48 | 1016.4 |
| 20260502205803 | 48 | 258 | 4.0 | 11.0 | 0.00 | 0.00 | 0.00 | 48 | 1016.4 |
| 20260502205724 | 48 | 260 | 4.0 | 11.0 | 0.00 | 0.00 | 0.00 | 48 | 1016.4 |
| 20260502205604 | 48 | 260 | 3.0 | 8.0 | 0.00 | 0.00 | 0.00 | 49 | 1016.4 |
| 20260502205524 | 48 | 261 | 3.0 | 8.0 | 0.00 | 0.00 | 0.00 | 47 | 1016.4 |
| 20260502205403 | 48 | 259 | 4.0 | 10.0 | 0.00 | 0.00 | 0.00 | 48 | 1016.5 |
| 20260502205305 | 48 | 261 | 4.0 | 10.0 | 0.00 | 0.00 | 0.00 | 49 | 1016.4 |
| 20260502205204 | 48 | 260 | 4.0 | 12.0 | 0.00 | 0.00 | 0.00 | 47 | 1016.4 |
| 20260502205103 | 48 | 256 | 4.0 | 12.0 | 0.00 | 0.00 | 0.00 | 49 | 1016.5 |
| 20260502205003 | 48 | 256 | 5.0 | 12.0 | 0.00 | 0.00 | 0.00 | 47 | 1016.5 |
| 20260502204903 | 48 | 251 | 5.0 | 12.0 | 0.00 | 0.00 | 0.00 | 47 | 1016.5 |
| 20260502204803 | 48 | 249 | 5.0 | 12.0 | 0.00 | 0.00 | 0.00 | 48 | 1016.5 |
| 20260502204703 | 47 | 248 | 6.0 | 12.0 | 0.00 | 0.00 | 0.00 | 48 | 1016.5 |
| 20260502204603 | 47 | 248 | 6.0 | 12.0 | 0.00 | 0.00 | 0.00 | 51 | 1016.6 |
| 20260502204503 | 47 | 248 | 6.0 | 12.0 | 0.00 | 0.00 | 0.00 | 51 | 1016.6 |
| 20260502204403 | 47 | 247 | 6.0 | 12.0 | 0.00 | 0.00 | 0.00 | 51 | 1016.6 |
| 20260502204303 | 47 | 245 | 6.0 | 12.0 | 0.00 | 0.00 | 0.00 | 51 | 1016.6 |
| 20260502204203 | 47 | 246 | 6.0 | 11.0 | 0.00 | 0.00 | 0.00 | 50 | 1016.6 |
| 20260502204103 | 47 | 249 | 6.0 | 11.0 | 0.00 | 0.00 | 0.00 | 48 | 1016.6 |
| 20260502204024 | 47 | 249 | 6.0 | 11.0 | 0.00 | 0.00 | 0.00 | 47 | 1016.6 |
| 20260502203903 | 48 | 250 | 5.0 | 11.0 | 0.00 | 0.00 | 0.00 | 50 | 1016.6 |
| 20260502203804 | 47 | 250 | 5.0 | 11.0 | 0.00 | 0.00 | 0.00 | 49 | 1016.7 |
| 20260502203704 | 47 | 253 | 5.0 | 11.0 | 0.00 | 0.00 | 0.00 | 51 | 1016.7 |
| 20260502203603 | 47 | 253 | 5.0 | 11.0 | 0.00 | 0.00 | 0.00 | 50 | 1016.7 |
| 20260502203504 | 48 | 253 | 5.0 | 11.0 | 0.00 | 0.00 | 0.00 | 49 | 1016.7 |
| 20260502203403 | 48 | 255 | 5.0 | 11.0 | 0.00 | 0.00 | 0.00 | 51 | 1016.7 |
| 20260502203304 | 47 | 256 | 6.0 | 11.0 | 0.00 | 0.00 | 0.00 | 50 | 1016.7 |
| 20260502203203 | 47 | 254 | 6.0 | 11.0 | 0.00 | 0.00 | 0.00 | 54 | 1016.7 |
| 20260502203103 | 47 | 251 | 6.0 | 12.0 | 0.00 | 0.00 | 0.00 | 53 | 1016.8 |
| 20260502203003 | 47 | 249 | 5.0 | 12.0 | 0.00 | 0.00 | 0.00 | 53 | 1016.8 |
| 20260502202903 | 48 | 249 | 5.0 | 12.0 | 0.00 | 0.00 | 0.00 | 52 | 1016.8 |
| 20260502202824 | 48 | 253 | 5.0 | 12.0 | 0.00 | 0.00 | 0.00 | 53 | 1016.8 |
| 20260502202703 | 47 | 253 | 5.0 | 12.0 | 0.00 | 0.00 | 0.00 | 52 | 1016.8 |
| 20260502202603 | 47 | 253 | 5.0 | 12.0 | 0.00 | 0.00 | 0.00 | 52 | 1016.8 |
| 20260502202503 | 47 | 255 | 4.0 | 12.0 | 0.00 | 0.00 | 0.00 | 52 | 1016.9 |
| 20260502202403 | 47 | 256 | 4.0 | 12.0 | 0.00 | 0.00 | 0.00 | 53 | 1016.9 |
| 20260502202304 | 48 | 255 | 4.0 | 12.0 | 0.00 | 0.00 | 0.00 | 51 | 1016.8 |
| 20260502202203 | 48 | 256 | 4.0 | 12.0 | 0.00 | 0.00 | 0.00 | 50 | 1016.8 |
| 20260502202124 | 48 | 257 | 4.0 | 12.0 | 0.00 | 0.00 | 0.00 | 50 | 1016.8 |
| 20260502202024 | 48 | 257 | 5.0 | 13.0 | 0.00 | 0.00 | 0.00 | 50 | 1016.9 |
| 20260502201904 | 48 | 256 | 5.0 | 13.0 | 0.00 | 0.00 | 0.00 | 51 | 1016.9 |
| 20260502201804 | 48 | 252 | 5.0 | 13.0 | 0.00 | 0.00 | 0.00 | 53 | 1016.8 |
| 20260502201703 | 48 | 250 | 5.0 | 13.0 | 0.00 | 0.00 | 0.00 | 54 | 1016.8 |
| 20260502201624 | 47 | 250 | 5.0 | 13.0 | 0.00 | 0.00 | 0.00 | 54 | 1016.8 |
| 20260502201503 | 47 | 248 | 6.0 | 13.0 | 0.00 | 0.00 | 0.00 | 54 | 1016.9 |
| 20260502201403 | 47 | 247 | 6.0 | 13.0 | 0.00 | 0.00 | 0.00 | 53 | 1016.9 |
| 20260502201303 | 47 | 246 | 6.0 | 13.0 | 0.00 | 0.00 | 0.00 | 51 | 1016.9 |
| 20260502201203 | 47 | 247 | 6.0 | 13.0 | 0.00 | 0.00 | 0.00 | 52 | 1016.9 |
| 20260502201124 | 47 | 246 | 6.0 | 13.0 | 0.00 | 0.00 | 0.00 | 51 | 1016.9 |
| 20260502201003 | 47 | 246 | 6.0 | 11.0 | 0.00 | 0.00 | 0.00 | 53 | 1016.9 |
| 20260502200903 | 47 | 246 | 7.0 | 11.0 | 0.00 | 0.00 | 0.00 | 54 | 1016.9 |
| 20260502200803 | 47 | 247 | 7.0 | 12.0 | 0.00 | 0.00 | 0.00 | 53 | 1016.9 |
| 20260502200703 | 47 | 247 | 7.0 | 12.0 | 0.00 | 0.00 | 0.00 | 54 | 1016.9 |
| 20260502200603 | 47 | 247 | 7.0 | 16.0 | 0.00 | 0.00 | 0.00 | 54 | 1016.9 |
| 20260502200524 | 47 | 246 | 7.0 | 16.0 | 0.00 | 0.00 | 0.00 | 55 | 1017.0 |
| 20260502200403 | 47 | 246 | 6.0 | 16.0 | 0.00 | 0.00 | 0.00 | 54 | 1017.0 |
| 20260502200303 | 47 | 249 | 6.0 | 16.0 | 0.00 | 0.00 | 0.00 | 52 | 1017.0 |
| 20260502200203 | 47 | 248 | 6.0 | 16.0 | 0.00 | 0.00 | 0.00 | 52 | 1017.0 |
| 20260502200124 | 47 | 248 | 6.0 | 16.0 | 0.00 | 0.00 | 0.00 | 53 | 1017.0 |
| 20260502200025 | 47 | 248 | 6.0 | 16.0 | 0.00 | 0.00 | 0.00 | 51 | 1017.1 |
| 20260502195903 | 47 | 249 | 5.0 | 16.0 | 0.00 | 0.00 | 0.00 | 48 | 1017.2 |
| 20260502195803 | 47 | 250 | 5.0 | 16.0 | 0.00 | 0.00 | 0.00 | 54 | 1017.2 |
| 20260502195724 | 47 | 251 | 5.0 | 16.0 | 0.00 | 0.00 | 0.00 | 54 | 1017.1 |
| 20260502195603 | 48 | 253 | 5.0 | 13.0 | 0.00 | 0.00 | 0.00 | 54 | 1017.1 |
| 20260502195503 | 48 | 255 | 5.0 | 13.0 | 0.00 | 0.00 | 0.00 | 53 | 1017.2 |
| 20260502195403 | 48 | 258 | 5.0 | 13.0 | 0.00 | 0.00 | 0.00 | 51 | 1017.2 |
| 20260502195305 | 48 | 257 | 5.0 | 13.0 | 0.00 | 0.00 | 0.00 | 58 | 1017.2 |
| 20260502195203 | 47 | 258 | 5.0 | 13.0 | 0.00 | 0.00 | 0.00 | 56 | 1017.2 |
| 20260502195103 | 48 | 259 | 5.0 | 13.0 | 0.00 | 0.00 | 0.00 | 54 | 1017.2 |
| 20260502195003 | 48 | 260 | 5.0 | 11.0 | 0.00 | 0.00 | 0.00 | 55 | 1017.2 |
| 20260502194903 | 47 | 258 | 6.0 | 11.0 | 0.00 | 0.00 | 0.00 | 54 | 1017.3 |
| 20260502194803 | 47 | 256 | 6.0 | 11.0 | 0.00 | 0.00 | 0.00 | 54 | 1017.3 |
| 20260502194703 | 47 | 255 | 6.0 | 11.0 | 0.00 | 0.00 | 0.00 | 54 | 1017.3 |
| 20260502194603 | 47 | 255 | 6.0 | 11.0 | 0.00 | 0.00 | 0.00 | 56 | 1017.3 |
| 20260502194503 | 47 | 255 | 6.0 | 12.0 | 0.00 | 0.00 | 0.00 | 55 | 1017.3 |
| 20260502194406 | 47 | 252 | 6.0 | 12.0 | 0.00 | 0.00 | 0.00 | 58 | 1017.3 |
| 20260502194306 | 47 | 251 | 6.0 | 12.0 | 0.00 | 0.00 | 0.00 | 57 | 1017.3 |
| 20260502194206 | 47 | 251 | 6.0 | 12.0 | 0.00 | 0.00 | 0.00 | 56 | 1017.4 |
| 20260502194106 | 47 | 250 | 5.0 | 12.0 | 0.00 | 0.00 | 0.00 | 55 | 1017.4 |
| 20260502194007 | 47 | 250 | 5.0 | 12.0 | 0.00 | 0.00 | 0.00 | 56 | 1017.4 |
| 20260502193907 | 47 | 250 | 5.0 | 12.0 | 0.00 | 0.00 | 0.00 | 55 | 1017.4 |
| 20260502193807 | 47 | 249 | 5.0 | 12.0 | 0.00 | 0.00 | 0.00 | 55 | 1017.4 |
| 20260502193707 | 47 | 250 | 4.0 | 12.0 | 0.00 | 0.00 | 0.00 | 55 | 1017.4 |
| 20260502193606 | 48 | 256 | 4.0 | 12.0 | 0.00 | 0.00 | 0.00 | 54 | 1017.4 |
| 20260502193507 | 48 | 257 | 5.0 | 10.0 | 0.00 | 0.00 | 0.00 | 51 | 1017.4 |
| 20260502193427 | 48 | 258 | 5.0 | 11.0 | 0.00 | 0.00 | 0.00 | 51 | 1017.5 |
| 20260502193306 | 48 | 258 | 5.0 | 11.0 | 0.00 | 0.00 | 0.00 | 53 | 1017.5 |
| 20260502193206 | 48 | 260 | 5.0 | 11.0 | 0.00 | 0.00 | 0.00 | 52 | 1017.5 |
| 20260502193106 | 48 | 264 | 5.0 | 11.0 | 0.00 | 0.00 | 0.00 | 54 | 1017.5 |
| 20260502193007 | 48 | 266 | 5.0 | 11.0 | 0.00 | 0.00 | 0.00 | 54 | 1017.5 |
| 20260502192907 | 48 | 269 | 5.0 | 11.0 | 0.00 | 0.00 | 0.00 | 53 | 1017.5 |
| 20260502192806 | 47 | 273 | 5.0 | 11.0 | 0.00 | 0.00 | 0.00 | 50 | 1017.5 |
| 20260502192707 | 47 | 274 | 5.0 | 11.0 | 0.00 | 0.00 | 0.00 | 49 | 1017.5 |
| 20260502192606 | 47 | 273 | 5.0 | 11.0 | 0.00 | 0.00 | 0.00 | 49 | 1017.6 |
| 20260502192506 | 47 | 275 | 5.0 | 11.0 | 0.00 | 0.00 | 0.00 | 50 | 1017.6 |
| 20260502192406 | 47 | 279 | 5.0 | 11.0 | 0.00 | 0.00 | 0.00 | 51 | 1017.6 |
| 20260502192306 | 47 | 282 | 5.0 | 11.0 | 0.00 | 0.00 | 0.00 | 49 | 1017.6 |
| 20260502192207 | 47 | 280 | 5.0 | 11.0 | 0.00 | 0.00 | 0.00 | 49 | 1017.6 |
| 20260502192107 | 47 | 283 | 5.0 | 11.0 | 0.00 | 0.00 | 0.00 | 48 | 1017.5 |
| 20260502192006 | 47 | 288 | 5.0 | 11.0 | 0.00 | 0.00 | 0.00 | 49 | 1017.5 |
| 20260502191907 | 47 | 288 | 5.0 | 10.0 | 0.00 | 0.00 | 0.00 | 49 | 1017.6 |
| 20260502191807 | 47 | 288 | 5.0 | 10.0 | 0.00 | 0.00 | 0.00 | 48 | 1017.6 |
| 20260502191706 | 47 | 290 | 5.0 | 10.0 | 0.00 | 0.00 | 0.00 | 50 | 1017.6 |
| 20260502191606 | 47 | 288 | 5.0 | 10.0 | 0.00 | 0.00 | 0.00 | 49 | 1017.6 |
| 20260502191506 | 47 | 286 | 5.0 | 10.0 | 0.00 | 0.00 | 0.00 | 49 | 1017.6 |
| 20260502191406 | 47 | 282 | 4.0 | 10.0 | 0.00 | 0.00 | 0.00 | 52 | 1017.7 |
| 20260502191307 | 47 | 283 | 4.0 | 10.0 | 0.00 | 0.00 | 0.00 | 52 | 1017.6 |
| 20260502191207 | 47 | 285 | 4.0 | 10.0 | 0.00 | 0.00 | 0.00 | 52 | 1017.6 |
| 20260502191127 | 47 | 281 | 4.0 | 10.0 | 0.00 | 0.00 | 0.00 | 52 | 1017.7 |
| 20260502191007 | 47 | 279 | 5.0 | 10.0 | 0.00 | 0.00 | 0.00 | 54 | 1017.6 |
| 20260502190906 | 46 | 282 | 5.0 | 10.0 | 0.00 | 0.00 | 0.00 | 51 | 1017.6 |
| 20260502190806 | 47 | 282 | 5.0 | 10.0 | 0.00 | 0.00 | 0.00 | 48 | 1017.7 |
| 20260502190706 | 47 | 281 | 4.0 | 10.0 | 0.00 | 0.00 | 0.00 | 49 | 1017.7 |
| 20260502190606 | 47 | 279 | 4.0 | 10.0 | 0.00 | 0.00 | 0.00 | 58 | 1017.7 |
| 20260502190506 | 47 | 273 | 5.0 | 15.0 | 0.00 | 0.00 | 0.00 | 55 | 1017.6 |
| 20260502190407 | 47 | 273 | 5.0 | 15.0 | 0.00 | 0.00 | 0.00 | 55 | 1017.6 |
| 20260502190328 | 47 | 269 | 5.0 | 15.0 | 0.00 | 0.00 | 0.00 | 53 | 1017.7 |
| 20260502190207 | 46 | 265 | 5.0 | 15.0 | 0.00 | 0.00 | 0.00 | 53 | 1017.7 |
| 20260502190106 | 47 | 266 | 5.0 | 15.0 | 0.00 | 0.00 | 0.00 | 53 | 1017.7 |
| 20260502190028 | 47 | 262 | 5.0 | 15.0 | 0.00 | 0.00 | 0.00 | 51 | 1017.7 |
| 20260502185906 | 47 | 256 | 5.0 | 15.0 | 0.00 | 0.00 | 0.00 | 53 | 1017.8 |
| 20260502185827 | 46 | 255 | 5.0 | 15.0 | 0.00 | 0.00 | 0.00 | 53 | 1017.8 |
| 20260502185706 | 46 | 250 | 6.0 | 15.0 | 0.00 | 0.00 | 0.00 | 54 | 1017.8 |
| 20260502185627 | 46 | 249 | 6.0 | 15.0 | 0.00 | 0.00 | 0.00 | 55 | 1017.8 |
| 20260502185527 | 47 | 252 | 6.0 | 15.0 | 0.00 | 0.00 | 0.00 | 59 | 1017.8 |
| 20260502185407 | 47 | 252 | 6.0 | 13.0 | 0.00 | 0.00 | 0.00 | 60 | 1017.8 |
| 20260502185306 | 46 | 254 | 6.0 | 13.0 | 0.00 | 0.00 | 0.00 | 60 | 1017.8 |
| 20260502185206 | 46 | 258 | 6.0 | 13.0 | 0.00 | 0.00 | 0.00 | 61 | 1017.8 |
| 20260502185107 | 46 | 259 | 6.0 | 13.0 | 0.00 | 0.00 | 0.00 | 60 | 1017.8 |
| 20260502185006 | 47 | 261 | 6.0 | 14.0 | 0.00 | 0.00 | 0.00 | 58 | 1017.8 |
| 20260502184906 | 47 | 264 | 6.0 | 14.0 | 0.00 | 0.00 | 0.00 | 51 | 1017.8 |
| 20260502184827 | 47 | 265 | 6.0 | 14.0 | 0.00 | 0.00 | 0.00 | 51 | 1017.9 |
| 20260502184706 | 47 | 270 | 6.0 | 14.0 | 0.00 | 0.00 | 0.00 | 53 | 1017.9 |
| 20260502184607 | 46 | 269 | 6.0 | 14.0 | 0.00 | 0.00 | 0.00 | 53 | 1017.9 |
| 20260502184528 | 46 | 268 | 6.0 | 14.0 | 0.00 | 0.00 | 0.00 | 52 | 1017.9 |
| 20260502184406 | 46 | 271 | 5.0 | 14.0 | 0.00 | 0.00 | 0.00 | 52 | 1017.9 |
| 20260502184306 | 46 | 273 | 5.0 | 14.0 | 0.00 | 0.00 | 0.00 | 56 | 1017.9 |
| 20260502184206 | 46 | 268 | 5.0 | 14.0 | 0.00 | 0.00 | 0.00 | 56 | 1018.0 |
| 20260502184127 | 46 | 266 | 5.0 | 14.0 | 0.00 | 0.00 | 0.00 | 56 | 1018.0 |
| 20260502184027 | 46 | 267 | 5.0 | 14.0 | 0.00 | 0.00 | 0.00 | 55 | 1017.9 |
| 20260502183906 | 46 | 265 | 5.0 | 11.0 | 0.00 | 0.00 | 0.00 | 54 | 1017.9 |
| 20260502183806 | 46 | 262 | 5.0 | 13.0 | 0.00 | 0.00 | 0.00 | 54 | 1017.9 |
| 20260502183706 | 46 | 258 | 5.0 | 13.0 | 0.00 | 0.00 | 0.00 | 57 | 1017.9 |
| 20260502183606 | 47 | 255 | 6.0 | 13.0 | 0.00 | 0.00 | 0.00 | 58 | 1017.9 |
| 20260502183507 | 46 | 253 | 6.0 | 13.0 | 0.00 | 0.00 | 0.00 | 58 | 1017.9 |
| 20260502183427 | 46 | 252 | 6.0 | 13.0 | 0.00 | 0.00 | 0.00 | 58 | 1017.9 |
| 20260502183306 | 46 | 249 | 7.0 | 15.0 | 0.00 | 0.00 | 0.00 | 57 | 1017.9 |
| 20260502183106 | 46 | 250 | 7.0 | 15.0 | 0.00 | 0.00 | 0.00 | 54 | 1018.0 |
| 20260502183006 | 46 | 249 | 7.0 | 15.0 | 0.00 | 0.00 | 0.00 | 53 | 1018.0 |
| 20260502182906 | 46 | 251 | 7.0 | 15.0 | 0.00 | 0.00 | 0.00 | 55 | 1018.0 |
| 20260502182806 | 46 | 254 | 7.0 | 15.0 | 0.00 | 0.00 | 0.00 | 56 | 1018.0 |
| 20260502182706 | 46 | 254 | 7.0 | 15.0 | 0.00 | 0.00 | 0.00 | 55 | 1018.0 |
| 20260502182628 | 46 | 257 | 7.0 | 15.0 | 0.00 | 0.00 | 0.00 | 56 | 1018.0 |
| 20260502182506 | 46 | 258 | 6.0 | 15.0 | 0.00 | 0.00 | 0.00 | 55 | 1018.0 |
| 20260502182406 | 47 | 261 | 6.0 | 15.0 | 0.00 | 0.00 | 0.00 | 58 | 1018.0 |
| 20260502182306 | 47 | 265 | 6.0 | 12.0 | 0.00 | 0.00 | 0.00 | 58 | 1018.0 |
| 20260502182206 | 47 | 267 | 6.0 | 12.0 | 0.00 | 0.00 | 0.00 | 57 | 1018.0 |
| 20260502182106 | 46 | 267 | 5.0 | 12.0 | 0.00 | 0.00 | 0.00 | 56 | 1018.0 |
| 20260502182006 | 46 | 271 | 5.0 | 12.0 | 0.00 | 0.00 | 0.00 | 58 | 1018.0 |
| 20260502181927 | 46 | 270 | 5.0 | 12.0 | 0.00 | 0.00 | 0.00 | 57 | 1018.1 |
| 20260502181806 | 47 | 271 | 5.0 | 12.0 | 0.00 | 0.00 | 0.00 | 56 | 1018.1 |
| 20260502181706 | 47 | 274 | 5.0 | 12.0 | 0.00 | 0.00 | 0.00 | 58 | 1018.0 |
| 20260502181606 | 47 | 271 | 5.0 | 12.0 | 0.00 | 0.00 | 0.00 | 58 | 1018.0 |
| 20260502181506 | 47 | 271 | 5.0 | 12.0 | 0.00 | 0.00 | 0.00 | 57 | 1018.0 |
| 20260502181406 | 47 | 268 | 5.0 | 12.0 | 0.00 | 0.00 | 0.00 | 54 | 1018.1 |
| 20260502181306 | 47 | 262 | 6.0 | 12.0 | 0.00 | 0.00 | 0.00 | 57 | 1018.1 |
| 20260502181206 | 47 | 260 | 5.0 | 12.0 | 0.00 | 0.00 | 0.00 | 58 | 1018.0 |
| 20260502181106 | 47 | 259 | 6.0 | 12.0 | 0.00 | 0.00 | 0.00 | 56 | 1018.1 |
| 20260502181006 | 46 | 257 | 6.0 | 12.0 | 0.00 | 0.00 | 0.00 | 56 | 1018.1 |
| 20260502180907 | 46 | 254 | 6.0 | 13.0 | 0.00 | 0.00 | 0.00 | 56 | 1018.1 |
| 20260502180806 | 47 | 249 | 6.0 | 13.0 | 0.00 | 0.00 | 0.00 | 60 | 1018.1 |
| 20260502180706 | 46 | 249 | 6.0 | 13.0 | 0.00 | 0.00 | 0.00 | 60 | 1018.1 |
| 20260502180606 | 46 | 251 | 5.0 | 13.0 | 0.00 | 0.00 | 0.00 | 60 | 1018.2 |
| 20260502180506 | 46 | 253 | 6.0 | 13.0 | 0.00 | 0.00 | 0.00 | 59 | 1018.2 |
| 20260502180427 | 46 | 252 | 6.0 | 13.0 | 0.00 | 0.00 | 0.00 | 59 | 1018.2 |
| 20260502180306 | 47 | 253 | 6.0 | 15.0 | 0.00 | 0.00 | 0.00 | 58 | 1018.2 |
| 20260502180206 | 47 | 254 | 6.0 | 15.0 | 0.00 | 0.00 | 0.00 | 58 | 1018.2 |
| 20260502180106 | 47 | 251 | 6.0 | 15.0 | 0.00 | 0.00 | 0.00 | 57 | 1018.2 |
| 20260502170427 | 46 | 268 | 6.0 | 12.0 | 0.00 | 0.00 | 0.00 | 60 | 1018.3 |
| 20260502170306 | 46 | 270 | 6.0 | 12.0 | 0.00 | 0.00 | 0.00 | 60 | 1018.4 |
| 20260502170206 | 46 | 271 | 6.0 | 12.0 | 0.00 | 0.00 | 0.00 | 59 | 1018.4 |
| 20260502170106 | 46 | 270 | 6.0 | 12.0 | 0.00 | 0.00 | 0.00 | 59 | 1018.3 |
| 20260502164327 | 46 | 288 | 5.0 | 12.0 | 0.00 | 0.00 | 0.00 | 57 | 1018.4 |
| 20260502164206 | 46 | 283 | 5.0 | 11.0 | 0.00 | 0.00 | 0.00 | 57 | 1018.4 |
| 20260502164106 | 46 | 281 | 5.0 | 11.0 | 0.00 | 0.00 | 0.00 | 56 | 1018.4 |
| 20260502164006 | 46 | 277 | 5.0 | 11.0 | 0.00 | 0.00 | 0.00 | 54 | 1018.4 |
| 20260502163906 | 46 | 270 | 5.0 | 12.0 | 0.00 | 0.00 | 0.00 | 56 | 1018.5 |
| 20260502163806 | 46 | 271 | 5.0 | 12.0 | 0.00 | 0.00 | 0.00 | 58 | 1018.4 |
| 20260502163706 | 46 | 273 | 6.0 | 12.0 | 0.00 | 0.00 | 0.00 | 57 | 1018.4 |
| 20260502163627 | 46 | 271 | 6.0 | 14.0 | 0.00 | 0.00 | 0.00 | 56 | 1018.5 |
| 20260502163527 | 46 | 270 | 6.0 | 14.0 | 0.00 | 0.00 | 0.00 | 56 | 1018.5 |
| 20260502163406 | 46 | 268 | 6.0 | 14.0 | 0.00 | 0.00 | 0.00 | 58 | 1018.4 |
| 20260502163306 | 46 | 268 | 6.0 | 14.0 | 0.00 | 0.00 | 0.00 | 58 | 1018.4 |
| 20260502163206 | 46 | 270 | 6.0 | 14.0 | 0.00 | 0.00 | 0.00 | 59 | 1018.4 |
| 20260502163106 | 46 | 268 | 6.0 | 14.0 | 0.00 | 0.00 | 0.00 | 58 | 1018.4 |
| 20260502163027 | 46 | 267 | 6.0 | 14.0 | 0.00 | 0.00 | 0.00 | 58 | 1018.4 |
| 20260502162927 | 46 | 271 | 5.0 | 14.0 | 0.00 | 0.00 | 0.00 | 58 | 1018.4 |
| 20260502162806 | 46 | 271 | 6.0 | 14.0 | 0.00 | 0.00 | 0.00 | 59 | 1018.5 |
| 20260502162706 | 46 | 267 | 5.0 | 14.0 | 0.00 | 0.00 | 0.00 | 57 | 1018.5 |
| 20260502162606 | 46 | 268 | 6.0 | 12.0 | 0.00 | 0.00 | 0.00 | 57 | 1018.4 |
| 20260502162506 | 46 | 269 | 6.0 | 12.0 | 0.00 | 0.00 | 0.00 | 56 | 1018.4 |
| 20260502162406 | 46 | 268 | 6.0 | 12.0 | 0.00 | 0.00 | 0.00 | 59 | 1018.4 |
| 20260502162328 | 46 | 266 | 6.0 | 12.0 | 0.00 | 0.00 | 0.00 | 57 | 1018.5 |
| 20260502162227 | 46 | 265 | 6.0 | 14.0 | 0.00 | 0.00 | 0.00 | 56 | 1018.5 |
| 20260502162106 | 46 | 263 | 7.0 | 14.0 | 0.00 | 0.00 | 0.00 | 57 | 1018.5 |
| 20260502162006 | 46 | 262 | 7.0 | 14.0 | 0.00 | 0.00 | 0.00 | 57 | 1018.4 |
| 20260502161927 | 46 | 261 | 7.0 | 14.0 | 0.00 | 0.00 | 0.00 | 57 | 1018.4 |
| 20260502161806 | 46 | 258 | 8.0 | 14.0 | 0.00 | 0.00 | 0.00 | 55 | 1018.5 |
| 20260502161706 | 46 | 258 | 8.0 | 14.0 | 0.00 | 0.00 | 0.00 | 55 | 1018.5 |
| 20260502161606 | 46 | 258 | 7.0 | 14.0 | 0.00 | 0.00 | 0.00 | 57 | 1018.5 |
| 20260502161506 | 46 | 258 | 7.0 | 14.0 | 0.00 | 0.00 | 0.00 | 57 | 1018.5 |
| 20260502161406 | 46 | 257 | 7.0 | 14.0 | 0.00 | 0.00 | 0.00 | 57 | 1018.5 |
| 20260502161306 | 46 | 256 | 7.0 | 14.0 | 0.00 | 0.00 | 0.00 | 57 | 1018.4 |
| 20260502161207 | 46 | 259 | 6.0 | 14.0 | 0.00 | 0.00 | 0.00 | 56 | 1018.3 |
| 20260502161106 | 46 | 259 | 6.0 | 14.0 | 0.00 | 0.00 | 0.00 | 56 | 1018.3 |
| 20260502161006 | 46 | 259 | 6.0 | 14.0 | 0.00 | 0.00 | 0.00 | 56 | 1018.4 |
| 20260502160906 | 46 | 260 | 6.0 | 14.0 | 0.00 | 0.00 | 0.00 | 55 | 1018.4 |
| 20260502160806 | 46 | 261 | 5.0 | 14.0 | 0.00 | 0.00 | 0.00 | 55 | 1018.5 |
| 20260502160706 | 47 | 260 | 5.0 | 10.0 | 0.00 | 0.00 | 0.00 | 56 | 1018.4 |
| 20260502160627 | 46 | 259 | 5.0 | 10.0 | 0.00 | 0.00 | 0.00 | 58 | 1018.4 |
| 20260502160506 | 46 | 259 | 5.0 | 10.0 | 0.00 | 0.00 | 0.00 | 56 | 1018.4 |
| 20260502160406 | 46 | 263 | 5.0 | 10.0 | 0.00 | 0.00 | 0.00 | 58 | 1018.4 |
| 20260502160306 | 46 | 265 | 5.0 | 10.0 | 0.00 | 0.00 | 0.00 | 59 | 1018.4 |
| 20260502160206 | 46 | 260 | 6.0 | 12.0 | 0.00 | 0.00 | 0.00 | 58 | 1018.4 |
| 20260502160106 | 46 | 260 | 6.0 | 12.0 | 0.00 | 0.00 | 0.00 | 56 | 1018.4 |
| 20260502152306 | 45 | 251 | 5.0 | 12.0 | 0.00 | 0.00 | 0.00 | 59 | 1018.5 |
| 20260502152227 | 45 | 253 | 5.0 | 12.0 | 0.00 | 0.00 | 0.00 | 59 | 1018.5 |
| 20260502152106 | 45 | 253 | 5.0 | 12.0 | 0.00 | 0.00 | 0.00 | 60 | 1018.5 |
| 20260502152006 | 44 | 251 | 5.0 | 12.0 | 0.00 | 0.00 | 0.00 | 59 | 1018.5 |
| 20260502151906 | 44 | 253 | 5.0 | 12.0 | 0.00 | 0.00 | 0.00 | 58 | 1018.5 |
| 20260502151806 | 44 | 253 | 4.0 | 12.0 | 0.00 | 0.00 | 0.00 | 57 | 1018.5 |
| 20260502151706 | 44 | 256 | 4.0 | 11.0 | 0.00 | 0.00 | 0.00 | 57 | 1018.5 |
| 20260502151606 | 45 | 258 | 4.0 | 11.0 | 0.00 | 0.00 | 0.00 | 57 | 1018.5 |
| 20260502151527 | 45 | 260 | 4.0 | 11.0 | 0.00 | 0.00 | 0.00 | 57 | 1018.5 |
| 20260502151406 | 45 | 264 | 4.0 | 11.0 | 0.00 | 0.00 | 0.00 | 57 | 1018.5 |
| 20260502151306 | 45 | 268 | 4.0 | 10.0 | 0.00 | 0.00 | 0.00 | 58 | 1018.5 |
| 20260502151206 | 45 | 268 | 4.0 | 10.0 | 0.00 | 0.00 | 0.00 | 58 | 1018.5 |
| 20260502151127 | 45 | 266 | 4.0 | 10.0 | 0.00 | 0.00 | 0.00 | 58 | 1018.5 |
| 20260502151006 | 45 | 274 | 4.0 | 10.0 | 0.00 | 0.00 | 0.00 | 58 | 1018.5 |
| 20260502150927 | 45 | 272 | 4.0 | 10.0 | 0.00 | 0.00 | 0.00 | 57 | 1018.5 |
| 20260502150827 | 45 | 272 | 4.0 | 10.0 | 0.00 | 0.00 | 0.00 | 57 | 1018.5 |
| 20260502150706 | 45 | 274 | 4.0 | 10.0 | 0.00 | 0.00 | 0.00 | 56 | 1018.5 |
| 20260502150606 | 45 | 273 | 4.0 | 10.0 | 0.00 | 0.00 | 0.00 | 56 | 1018.6 |
| 20260502150506 | 45 | 279 | 4.0 | 10.0 | 0.00 | 0.00 | 0.00 | 56 | 1018.6 |
| 20260502150405 | 45 | 284 | 4.0 | 10.0 | 0.00 | 0.00 | 0.00 | 57 | 1018.6 |
| 20260502150306 | 45 | 286 | 4.0 | 10.0 | 0.00 | 0.00 | 0.00 | 58 | 1018.5 |
| 20260502150206 | 45 | 285 | 4.0 | 10.0 | 0.00 | 0.00 | 0.00 | 59 | 1018.5 |
| 20260502150106 | 44 | 282 | 4.0 | 10.0 | 0.00 | 0.00 | 0.00 | 59 | 1018.5 |
| 20260502140105 | 43 | 259 | 4.0 | 8.0 | 0.00 | 0.00 | 0.00 | 59 | 1018.6 |
| 20260502130706 | 42 | 294 | 1.0 | 4.0 | 0.00 | 0.00 | 0.00 | 64 | 1018.6 |
| 20260502130605 | 42 | 291 | 1.0 | 4.0 | 0.00 | 0.00 | 0.00 | 64 | 1018.6 |
| 20260502130505 | 42 | 291 | 2.0 | 4.0 | 0.00 | 0.00 | 0.00 | 64 | 1018.6 |
| 20260502130405 | 42 | 291 | 2.0 | 4.0 | 0.00 | 0.00 | 0.00 | 65 | 1018.6 |
| 20260502130305 | 42 | 291 | 1.0 | 4.0 | 0.00 | 0.00 | 0.00 | 64 | 1018.6 |
| 20260502130206 | 42 | 289 | 2.0 | 4.0 | 0.00 | 0.00 | 0.00 | 64 | 1018.6 |
| 20260502130106 | 42 | 288 | 2.0 | 4.0 | 0.00 | 0.00 | 0.00 | 64 | 1018.6 |
| 20260502123805 | 40 | 245 | 1.0 | 3.0 | 0.00 | 0.00 | 0.00 | 77 | 1018.6 |
| 20260502123706 | 39 | 0 | 0.0 | 3.0 | 0.00 | 0.00 | 0.00 | 79 | 1018.6 |
| 20260502123627 | 39 | 0 | 0.0 | 3.0 | 0.00 | 0.00 | 0.00 | 81 | 1018.6 |
| 20260502123505 | 39 | 0 | 0.0 | 2.0 | 0.00 | 0.00 | 0.00 | 82 | 1018.6 |
| 20260502123405 | 39 | 0 | 0.0 | 1.0 | 0.00 | 0.00 | 0.00 | 83 | 1018.7 |
| 20260502123305 | 38 | 0 | 0.0 | 1.0 | 0.00 | 0.00 | 0.00 | 83 | 1018.7 |
| 20260502123205 | 38 | 0 | 0.0 | 1.0 | 0.00 | 0.00 | 0.00 | 84 | 1018.7 |
| 20260502123105 | 38 | 0 | 0.0 | 1.0 | 0.00 | 0.00 | 0.00 | 85 | 1018.7 |
| 20260502123005 | 38 | 0 | 0.0 | 1.0 | 0.00 | 0.00 | 0.00 | 88 | 1018.7 |
| 20260502122906 | 38 | 0 | 0.0 | 0.0 | 0.00 | 0.00 | 0.00 | 89 | 1018.6 |
| 20260502122806 | 38 | 0 | 0.0 | 0.0 | 0.00 | 0.00 | 0.00 | 90 | 1018.7 |
| 20260502122706 | 37 | 0 | 0.0 | 0.0 | 0.00 | 0.00 | 0.00 | 90 | 1018.7 |
| 20260502122606 | 37 | 0 | 0.0 | 0.0 | 0.00 | 0.00 | 0.00 | 91 | 1018.7 |
| 20260502122505 | 37 | 0 | 0.0 | 0.0 | 0.00 | 0.00 | 0.00 | 91 | 1018.7 |
| 20260502122406 | 37 | 0 | 0.0 | 0.0 | 0.00 | 0.00 | 0.00 | 92 | 1018.7 |
| 20260502122306 | 36 | 0 | 0.0 | 0.0 | 0.00 | 0.00 | 0.00 | 93 | 1018.7 |
| 20260502122205 | 36 | 0 | 0.0 | 0.0 | 0.00 | 0.00 | 0.00 | 93 | 1018.7 |
| 20260502122105 | 36 | 0 | 0.0 | 0.0 | 0.00 | 0.00 | 0.00 | 93 | 1018.7 |
| 20260502122006 | 36 | 0 | 0.0 | 0.0 | 0.00 | 0.00 | 0.00 | 93 | 1018.8 |
| 20260502121906 | 36 | 0 | 0.0 | 0.0 | 0.00 | 0.00 | 0.00 | 93 | 1018.8 |
| 20260502121805 | 35 | 0 | 0.0 | 0.0 | 0.00 | 0.00 | 0.00 | 93 | 1018.7 |
| 20260502121705 | 35 | 0 | 0.0 | 0.0 | 0.00 | 0.00 | 0.00 | 93 | 1018.7 |
| 20260502121606 | 35 | 0 | 0.0 | 0.0 | 0.00 | 0.00 | 0.00 | 93 | 1018.7 |
| 20260502121505 | 35 | 0 | 0.0 | 0.0 | 0.00 | 0.00 | 0.00 | 94 | 1018.7 |
| 20260502121405 | 35 | 0 | 0.0 | 0.0 | 0.00 | 0.00 | 0.00 | 94 | 1018.7 |
| 20260502121306 | 35 | 0 | 0.0 | 0.0 | 0.00 | 0.00 | 0.00 | 94 | 1018.7 |
| 20260502121205 | 35 | 0 | 0.0 | 0.0 | 0.00 | 0.00 | 0.00 | 94 | 1018.7 |
| 20260502121105 | 35 | 0 | 0.0 | 0.0 | 0.00 | 0.00 | 0.00 | 94 | 1018.7 |
| 20260502121006 | 35 | 0 | 0.0 | 0.0 | 0.00 | 0.00 | 0.00 | 94 | 1018.7 |
| 20260502120906 | 35 | 0 | 0.0 | 0.0 | 0.00 | 0.00 | 0.00 | 95 | 1018.7 |
| 20260502120806 | 35 | 0 | 0.0 | 0.0 | 0.00 | 0.00 | 0.00 | 95 | 1018.7 |
| 20260502120706 | 34 | 0 | 0.0 | 0.0 | 0.00 | 0.00 | 0.00 | 95 | 1018.7 |
| 20260502120605 | 34 | 0 | 0.0 | 0.0 | 0.00 | 0.00 | 0.00 | 95 | 1018.7 |
| 20260502120505 | 34 | 0 | 0.0 | 0.0 | 0.00 | 0.00 | 0.00 | 95 | 1018.7 |
| 20260502120405 | 34 | 0 | 0.0 | 0.0 | 0.00 | 0.00 | 0.00 | 95 | 1018.7 |
| 20260502120305 | 34 | 0 | 0.0 | 0.0 | 0.00 | 0.00 | 0.00 | 95 | 1018.7 |
| 20260502120227 | 34 | 0 | 0.0 | 0.0 | 0.00 | 0.00 | 0.00 | 95 | 1018.7 |
| 20260502120105 | 34 | 0 | 0.0 | 0.0 | 0.00 | 0.00 | 0.00 | 95 | 1018.7 |
| 20260502115926 | 33 | 0 | 0.0 | 0.0 | 0.00 | 0.00 | 0.00 | 95 | 1018.7 |
| 20260502115805 | 33 | 0 | 0.0 | 0.0 | 0.00 | 0.00 | 0.00 | 95 | 1018.7 |
| 20260502115705 | 33 | 0 | 0.0 | 0.0 | 0.00 | 0.00 | 0.00 | 95 | 1018.6 |
| 20260502115605 | 33 | 0 | 0.0 | 0.0 | 0.00 | 0.00 | 0.00 | 95 | 1018.6 |
| 20260502115505 | 33 | 0 | 0.0 | 0.0 | 0.00 | 0.00 | 0.00 | 95 | 1018.6 |
| 20260502115405 | 33 | 0 | 0.0 | 0.0 | 0.00 | 0.00 | 0.00 | 95 | 1018.6 |
| 20260502115306 | 33 | 0 | 0.0 | 0.0 | 0.00 | 0.00 | 0.00 | 95 | 1018.6 |
| 20260502115206 | 32 | 0 | 0.0 | 0.0 | 0.00 | 0.00 | 0.00 | 95 | 1018.6 |
| 20260502115105 | 32 | 0 | 0.0 | 0.0 | 0.00 | 0.00 | 0.00 | 95 | 1018.6 |
| 20260502115005 | 32 | 0 | 0.0 | 0.0 | 0.00 | 0.00 | 0.00 | 95 | 1018.6 |
| 20260502114905 | 32 | 0 | 0.0 | 0.0 | 0.00 | 0.00 | 0.00 | 95 | 1018.6 |
| 20260502114805 | 32 | 0 | 0.0 | 0.0 | 0.00 | 0.00 | 0.00 | 95 | 1018.6 |
| 20260502114605 | 32 | 0 | 0.0 | 0.0 | 0.00 | 0.00 | 0.00 | 95 | 1018.6 |
| 20260502114505 | 32 | 0 | 0.0 | 0.0 | 0.00 | 0.00 | 0.00 | 95 | 1018.6 |
| 20260502114426 | 32 | 0 | 0.0 | 0.0 | 0.00 | 0.00 | 0.00 | 95 | 1018.6 |
| 20260502114306 | 32 | 0 | 0.0 | 0.0 | 0.00 | 0.00 | 0.00 | 95 | 1018.6 |
| 20260502114206 | 32 | 0 | 0.0 | 0.0 | 0.00 | 0.00 | 0.00 | 95 | 1018.5 |
| 20260502114105 | 32 | 0 | 0.0 | 0.0 | 0.00 | 0.00 | 0.00 | 95 | 1018.5 |
| 20260502114027 | 32 | 0 | 0.0 | 0.0 | 0.00 | 0.00 | 0.00 | 95 | 1018.5 |
| 20260502113905 | 32 | 0 | 0.0 | 0.0 | 0.00 | 0.00 | 0.00 | 95 | 1018.6 |
| 20260502113826 | 32 | 0 | 0.0 | 0.0 | 0.00 | 0.00 | 0.00 | 95 | 1018.6 |
| 20260502113705 | 32 | 0 | 0.0 | 0.0 | 0.00 | 0.00 | 0.00 | 95 | 1018.5 |
| 20260502113605 | 32 | 0 | 0.0 | 0.0 | 0.00 | 0.00 | 0.00 | 95 | 1018.5 |
| 20260502113505 | 32 | 0 | 0.0 | 0.0 | 0.00 | 0.00 | 0.00 | 95 | 1018.5 |
| 20260502113405 | 32 | 0 | 0.0 | 0.0 | 0.00 | 0.00 | 0.00 | 95 | 1018.5 |
| 20260502113306 | 31 | 0 | 0.0 | 0.0 | 0.00 | 0.00 | 0.00 | 95 | 1018.5 |
| 20260502113206 | 31 | 0 | 0.0 | 0.0 | 0.00 | 0.00 | 0.00 | 95 | 1018.5 |
| 20260502113106 | 32 | 0 | 0.0 | 0.0 | 0.00 | 0.00 | 0.00 | 95 | 1018.6 |
| 20260502113005 | 31 | 0 | 0.0 | 0.0 | 0.00 | 0.00 | 0.00 | 95 | 1018.6 |
| 20260502112905 | 32 | 0 | 0.0 | 0.0 | 0.00 | 0.00 | 0.00 | 95 | 1018.5 |
| 20260502112805 | 32 | 0 | 0.0 | 0.0 | 0.00 | 0.00 | 0.00 | 95 | 1018.5 |
| 20260502112705 | 32 | 0 | 0.0 | 0.0 | 0.00 | 0.00 | 0.00 | 95 | 1018.5 |
| 20260502112605 | 32 | 0 | 0.0 | 0.0 | 0.00 | 0.00 | 0.00 | 95 | 1018.5 |
| 20260502112526 | 31 | 0 | 0.0 | 0.0 | 0.00 | 0.00 | 0.00 | 95 | 1018.5 |
| 20260502112427 | 31 | 0 | 0.0 | 0.0 | 0.00 | 0.00 | 0.00 | 95 | 1018.5 |
| 20260502112306 | 31 | 0 | 0.0 | 0.0 | 0.00 | 0.00 | 0.00 | 95 | 1018.5 |
| 20260502112227 | 31 | 0 | 0.0 | 0.0 | 0.00 | 0.00 | 0.00 | 95 | 1018.5 |
| 20260502112105 | 31 | 0 | 0.0 | 0.0 | 0.00 | 0.00 | 0.00 | 95 | 1018.5 |
| 20260502112005 | 31 | 0 | 0.0 | 0.0 | 0.00 | 0.00 | 0.00 | 95 | 1018.5 |
| 20260502111905 | 31 | 0 | 0.0 | 0.0 | 0.00 | 0.00 | 0.00 | 95 | 1018.5 |
| 20260502111805 | 31 | 0 | 0.0 | 0.0 | 0.00 | 0.00 | 0.00 | 95 | 1018.5 |
| 20260502111706 | 31 | 0 | 0.0 | 0.0 | 0.00 | 0.00 | 0.00 | 95 | 1018.5 |
| 20260502111605 | 31 | 0 | 0.0 | 0.0 | 0.00 | 0.00 | 0.00 | 95 | 1018.4 |
| 20260502111526 | 31 | 0 | 0.0 | 0.0 | 0.00 | 0.00 | 0.00 | 95 | 1018.4 |
| 20260502111405 | 31 | 0 | 0.0 | 0.0 | 0.00 | 0.00 | 0.00 | 95 | 1018.5 |
| 20260502111305 | 31 | 0 | 0.0 | 0.0 | 0.00 | 0.00 | 0.00 | 95 | 1018.5 |
| 20260502111226 | 31 | 0 | 0.0 | 0.0 | 0.00 | 0.00 | 0.00 | 95 | 1018.5 |
| 20260502111105 | 31 | 0 | 0.0 | 0.0 | 0.00 | 0.00 | 0.00 | 95 | 1018.4 |
| 20260502111005 | 31 | 0 | 0.0 | 0.0 | 0.00 | 0.00 | 0.00 | 95 | 1018.4 |
| 20260502110927 | 31 | 0 | 0.0 | 0.0 | 0.00 | 0.00 | 0.00 | 95 | 1018.4 |
| 20260502110805 | 31 | 0 | 0.0 | 0.0 | 0.00 | 0.00 | 0.00 | 95 | 1018.5 |
| 20260502110705 | 31 | 0 | 0.0 | 0.0 | 0.00 | 0.00 | 0.00 | 95 | 1018.5 |
| 20260502110627 | 31 | 0 | 0.0 | 0.0 | 0.00 | 0.00 | 0.00 | 95 | 1018.5 |
| 20260502110505 | 31 | 0 | 0.0 | 0.0 | 0.00 | 0.00 | 0.00 | 95 | 1018.5 |
| 20260502110406 | 31 | 0 | 0.0 | 0.0 | 0.00 | 0.00 | 0.00 | 95 | 1018.4 |
| 20260502110326 | 31 | 0 | 0.0 | 0.0 | 0.00 | 0.00 | 0.00 | 95 | 1018.4 |
| 20260502110205 | 31 | 0 | 0.0 | 0.0 | 0.00 | 0.00 | 0.00 | 95 | 1018.5 |
| 20260502110105 | 31 | 0 | 0.0 | 0.0 | 0.00 | 0.00 | 0.00 | 95 | 1018.4 |
| 20260502110005 | 31 | 0 | 0.0 | 0.0 | 0.00 | 0.00 | 0.00 | 95 | 1018.4 |
| 20260502105905 | 31 | 0 | 0.0 | 0.0 | 0.00 | 0.00 | 0.00 | 95 | 1018.4 |
| 20260502105806 | 31 | 0 | 0.0 | 0.0 | 0.00 | 0.00 | 0.00 | 94 | 1018.5 |
| 20260502105706 | 31 | 0 | 0.0 | 0.0 | 0.00 | 0.00 | 0.00 | 94 | 1018.5 |
| 20260502105605 | 31 | 0 | 0.0 | 0.0 | 0.00 | 0.00 | 0.00 | 94 | 1018.5 |
| 20260502105505 | 31 | 0 | 0.0 | 0.0 | 0.00 | 0.00 | 0.00 | 94 | 1018.4 |
| 20260502105405 | 31 | 0 | 0.0 | 0.0 | 0.00 | 0.00 | 0.00 | 94 | 1018.4 |
| 20260502105306 | 30 | 0 | 0.0 | 0.0 | 0.00 | 0.00 | 0.00 | 94 | 1018.4 |
| 20260502105205 | 30 | 0 | 0.0 | 0.0 | 0.00 | 0.00 | 0.00 | 94 | 1018.4 |
| 20260502105126 | 30 | 0 | 0.0 | 0.0 | 0.00 | 0.00 | 0.00 | 94 | 1018.4 |
| 20260502105005 | 30 | 0 | 0.0 | 0.0 | 0.00 | 0.00 | 0.00 | 94 | 1018.4 |
| 20260502104905 | 30 | 0 | 0.0 | 0.0 | 0.00 | 0.00 | 0.00 | 94 | 1018.4 |
| 20260502104805 | 31 | 0 | 0.0 | 0.0 | 0.00 | 0.00 | 0.00 | 94 | 1018.5 |
| 20260502104705 | 31 | 0 | 0.0 | 0.0 | 0.00 | 0.00 | 0.00 | 94 | 1018.4 |
| 20260502104605 | 31 | 0 | 0.0 | 0.0 | 0.00 | 0.00 | 0.00 | 94 | 1018.4 |
| 20260502104505 | 31 | 0 | 0.0 | 0.0 | 0.00 | 0.00 | 0.00 | 94 | 1018.4 |
| 20260502104426 | 31 | 0 | 0.0 | 0.0 | 0.00 | 0.00 | 0.00 | 94 | 1018.4 |
| 20260502104305 | 31 | 0 | 0.0 | 0.0 | 0.00 | 0.00 | 0.00 | 94 | 1018.5 |
| 20260502104205 | 31 | 0 | 0.0 | 0.0 | 0.00 | 0.00 | 0.00 | 94 | 1018.5 |
| 20260502104126 | 31 | 0 | 0.0 | 0.0 | 0.00 | 0.00 | 0.00 | 94 | 1018.5 |
| 20260502104005 | 31 | 0 | 0.0 | 0.0 | 0.00 | 0.00 | 0.00 | 94 | 1018.5 |
| 20260502103926 | 31 | 0 | 0.0 | 0.0 | 0.00 | 0.00 | 0.00 | 94 | 1018.5 |
| 20260502103805 | 31 | 0 | 0.0 | 0.0 | 0.00 | 0.00 | 0.00 | 94 | 1018.4 |
| 20260502103706 | 31 | 0 | 0.0 | 0.0 | 0.00 | 0.00 | 0.00 | 94 | 1018.4 |
| 20260502103605 | 31 | 0 | 0.0 | 0.0 | 0.00 | 0.00 | 0.00 | 94 | 1018.4 |
| 20260502103526 | 31 | 0 | 0.0 | 0.0 | 0.00 | 0.00 | 0.00 | 94 | 1018.5 |
| 20260502103426 | 31 | 0 | 0.0 | 0.0 | 0.00 | 0.00 | 0.00 | 94 | 1018.5 |
| 20260502103305 | 31 | 0 | 0.0 | 0.0 | 0.00 | 0.00 | 0.00 | 94 | 1018.4 |
| 20260502103205 | 31 | 0 | 0.0 | 0.0 | 0.00 | 0.00 | 0.00 | 94 | 1018.4 |
| 20260502103105 | 31 | 0 | 0.0 | 0.0 | 0.00 | 0.00 | 0.00 | 94 | 1018.4 |
| 20260502103005 | 31 | 0 | 0.0 | 0.0 | 0.00 | 0.00 | 0.00 | 94 | 1018.4 |
| 20260502102905 | 31 | 0 | 0.0 | 0.0 | 0.00 | 0.00 | 0.00 | 94 | 1018.4 |
| 20260502102806 | 31 | 0 | 0.0 | 0.0 | 0.00 | 0.00 | 0.00 | 94 | 1018.4 |
| 20260502102726 | 31 | 0 | 0.0 | 0.0 | 0.00 | 0.00 | 0.00 | 94 | 1018.4 |
| 20260502102605 | 31 | 0 | 0.0 | 0.0 | 0.00 | 0.00 | 0.00 | 94 | 1018.4 |
| 20260502102505 | 31 | 0 | 0.0 | 0.0 | 0.00 | 0.00 | 0.00 | 94 | 1018.4 |
| 20260502102405 | 31 | 0 | 0.0 | 0.0 | 0.00 | 0.00 | 0.00 | 94 | 1018.4 |
| 20260502102326 | 31 | 0 | 0.0 | 0.0 | 0.00 | 0.00 | 0.00 | 94 | 1018.4 |
| 20260502102205 | 31 | 0 | 0.0 | 0.0 | 0.00 | 0.00 | 0.00 | 94 | 1018.3 |
| 20260502102105 | 31 | 0 | 0.0 | 0.0 | 0.00 | 0.00 | 0.00 | 94 | 1018.3 |
| 20260502102006 | 31 | 0 | 0.0 | 0.0 | 0.00 | 0.00 | 0.00 | 94 | 1018.3 |
| 20260502101905 | 31 | 0 | 0.0 | 0.0 | 0.00 | 0.00 | 0.00 | 94 | 1018.3 |
| 20260502101805 | 31 | 0 | 0.0 | 0.0 | 0.00 | 0.00 | 0.00 | 94 | 1018.3 |
| 20260502101705 | 31 | 0 | 0.0 | 0.0 | 0.00 | 0.00 | 0.00 | 94 | 1018.3 |
| 20260502101505 | 31 | 0 | 0.0 | 0.0 | 0.00 | 0.00 | 0.00 | 94 | 1018.3 |
| 20260502101405 | 31 | 0 | 0.0 | 0.0 | 0.00 | 0.00 | 0.00 | 94 | 1018.4 |
| 20260502101305 | 31 | 0 | 0.0 | 0.0 | 0.00 | 0.00 | 0.00 | 94 | 1018.4 |
| 20260502101205 | 31 | 0 | 0.0 | 0.0 | 0.00 | 0.00 | 0.00 | 94 | 1018.3 |
| 20260502101105 | 31 | 0 | 0.0 | 0.0 | 0.00 | 0.00 | 0.00 | 94 | 1018.3 |
| 20260502101005 | 31 | 0 | 0.0 | 0.0 | 0.00 | 0.00 | 0.00 | 94 | 1018.3 |
| 20260502100927 | 31 | 0 | 0.0 | 0.0 | 0.00 | 0.00 | 0.00 | 94 | 1018.4 |
| 20260502100805 | 31 | 0 | 0.0 | 0.0 | 0.00 | 0.00 | 0.00 | 94 | 1018.4 |
| 20260502100705 | 31 | 0 | 0.0 | 0.0 | 0.00 | 0.00 | 0.00 | 94 | 1018.3 |
| 20260502100626 | 31 | 0 | 0.0 | 0.0 | 0.00 | 0.00 | 0.00 | 94 | 1018.3 |
| 20260502100505 | 31 | 0 | 0.0 | 0.0 | 0.00 | 0.00 | 0.00 | 93 | 1018.3 |
| 20260502100426 | 31 | 0 | 0.0 | 0.0 | 0.00 | 0.00 | 0.00 | 93 | 1018.4 |
| 20260502100305 | 31 | 0 | 0.0 | 0.0 | 0.00 | 0.00 | 0.00 | 93 | 1018.4 |
| 20260502100205 | 31 | 0 | 0.0 | 0.0 | 0.00 | 0.00 | 0.00 | 93 | 1018.3 |
| 20260502100105 | 31 | 0 | 0.0 | 0.0 | 0.00 | 0.00 | 0.00 | 93 | 1018.4 |
| 20260502091505 | 32 | 0 | 0.0 | 0.0 | 0.00 | 0.00 | 0.00 | 91 | 1018.1 |
| 20260502091405 | 32 | 0 | 0.0 | 0.0 | 0.00 | 0.00 | 0.00 | 91 | 1018.1 |
| 20260502091305 | 32 | 0 | 0.0 | 0.0 | 0.00 | 0.00 | 0.00 | 91 | 1018.1 |
| 20260502091205 | 32 | 0 | 0.0 | 0.0 | 0.00 | 0.00 | 0.00 | 91 | 1018.1 |
| 20260502091105 | 32 | 0 | 0.0 | 0.0 | 0.00 | 0.00 | 0.00 | 91 | 1018.1 |
| 20260502091005 | 32 | 0 | 0.0 | 0.0 | 0.00 | 0.00 | 0.00 | 91 | 1018.1 |
| 20260502090905 | 32 | 0 | 0.0 | 0.0 | 0.00 | 0.00 | 0.00 | 91 | 1018.1 |
| 20260502090805 | 32 | 0 | 0.0 | 0.0 | 0.00 | 0.00 | 0.00 | 91 | 1018.1 |
| 20260502090705 | 32 | 0 | 0.0 | 0.0 | 0.00 | 0.00 | 0.00 | 91 | 1018.1 |
| 20260502090626 | 32 | 0 | 0.0 | 0.0 | 0.00 | 0.00 | 0.00 | 91 | 1018.1 |
| 20260502090505 | 32 | 0 | 0.0 | 0.0 | 0.00 | 0.00 | 0.00 | 91 | 1018.0 |
| 20260502090426 | 32 | 0 | 0.0 | 0.0 | 0.00 | 0.00 | 0.00 | 91 | 1018.0 |
| 20260502090305 | 32 | 0 | 0.0 | 0.0 | 0.00 | 0.00 | 0.00 | 91 | 1018.1 |
| 20260502090205 | 32 | 0 | 0.0 | 0.0 | 0.00 | 0.00 | 0.00 | 91 | 1018.1 |
| 20260502090105 | 32 | 0 | 0.0 | 0.0 | 0.00 | 0.00 | 0.00 | 91 | 1018.1 |
| 20260502080105 | 34 | 0 | 0.0 | 0.0 | 0.00 | 0.00 | 0.00 | 87 | 1017.8 |
| 20260502071504 | 37 | 0 | 0.0 | 2.0 | 0.00 | 0.00 | 0.00 | 80 | 1017.8 |
| 20260502071405 | 37 | 0 | 0.0 | 2.0 | 0.00 | 0.00 | 0.00 | 80 | 1017.9 |
| 20260502071304 | 37 | 0 | 0.0 | 2.0 | 0.00 | 0.00 | 0.00 | 80 | 1017.8 |
| 20260502071226 | 37 | 0 | 0.0 | 1.0 | 0.00 | 0.00 | 0.00 | 80 | 1017.8 |
| 20260502071105 | 37 | 0 | 0.0 | 0.0 | 0.00 | 0.00 | 0.00 | 79 | 1017.9 |
| 20260502071006 | 37 | 0 | 0.0 | 1.0 | 0.00 | 0.00 | 0.00 | 79 | 1017.9 |
| 20260502070905 | 37 | 0 | 0.0 | 2.0 | 0.00 | 0.00 | 0.00 | 79 | 1017.9 |
| 20260502070805 | 37 | 0 | 0.0 | 2.0 | 0.00 | 0.00 | 0.00 | 79 | 1017.9 |
| 20260502070705 | 37 | 0 | 0.0 | 2.0 | 0.00 | 0.00 | 0.00 | 79 | 1017.9 |
| 20260502070605 | 37 | 0 | 0.0 | 2.0 | 0.00 | 0.00 | 0.00 | 79 | 1017.9 |
| 20260502070505 | 37 | 0 | 0.0 | 2.0 | 0.00 | 0.00 | 0.00 | 79 | 1017.9 |
| 20260502070426 | 37 | 0 | 0.0 | 2.0 | 0.00 | 0.00 | 0.00 | 79 | 1018.0 |
| 20260502070326 | 37 | 0 | 0.0 | 2.0 | 0.00 | 0.00 | 0.00 | 79 | 1018.0 |
| 20260502070205 | 38 | 0 | 0.0 | 2.0 | 0.00 | 0.00 | 0.00 | 79 | 1017.9 |
| 20260502070105 | 38 | 0 | 0.0 | 2.0 | 0.00 | 0.00 | 0.00 | 79 | 1018.0 |
| 20260502070006 | 38 | 0 | 0.0 | 2.0 | 0.00 | 0.00 | 0.00 | 79 | 1018.0 |
| 20260502065905 | 38 | 0 | 0.0 | 1.0 | 0.00 | 0.00 | 0.00 | 78 | 1018.0 |
| 20260502065805 | 38 | 0 | 0.0 | 1.0 | 0.00 | 0.00 | 0.00 | 78 | 1017.9 |
| 20260502065705 | 38 | 0 | 0.0 | 1.0 | 0.00 | 0.00 | 0.00 | 78 | 1017.9 |
| 20260502065605 | 38 | 0 | 0.0 | 1.0 | 0.00 | 0.00 | 0.00 | 78 | 1017.9 |
| 20260502065526 | 38 | 0 | 0.0 | 1.0 | 0.00 | 0.00 | 0.00 | 78 | 1017.9 |
| 20260502065405 | 38 | 0 | 0.0 | 1.0 | 0.00 | 0.00 | 0.00 | 78 | 1017.9 |
| 20260502065326 | 38 | 0 | 0.0 | 1.0 | 0.00 | 0.00 | 0.00 | 78 | 1017.9 |
| 20260502065205 | 38 | 0 | 0.0 | 1.0 | 0.00 | 0.00 | 0.00 | 77 | 1017.9 |
| 20260502065105 | 38 | 0 | 0.0 | 0.0 | 0.00 | 0.00 | 0.00 | 77 | 1018.0 |
| 20260502065005 | 38 | 0 | 0.0 | 0.0 | 0.00 | 0.00 | 0.00 | 77 | 1018.0 |
| 20260502064905 | 38 | 0 | 0.0 | 0.0 | 0.00 | 0.00 | 0.00 | 77 | 1018.0 |
| 20260502064804 | 38 | 0 | 0.0 | 1.0 | 0.00 | 0.00 | 0.00 | 77 | 1018.1 |
| 20260502064705 | 38 | 0 | 0.0 | 1.0 | 0.00 | 0.00 | 0.00 | 77 | 1018.1 |
| 20260502064605 | 38 | 0 | 0.0 | 1.0 | 0.00 | 0.00 | 0.00 | 77 | 1018.0 |
| 20260502064505 | 38 | 0 | 0.0 | 1.0 | 0.00 | 0.00 | 0.00 | 77 | 1018.1 |
| 20260502064405 | 38 | 0 | 0.0 | 1.0 | 0.00 | 0.00 | 0.00 | 77 | 1018.1 |
| 20260502064305 | 38 | 0 | 0.0 | 1.0 | 0.00 | 0.00 | 0.00 | 76 | 1018.1 |
| 20260502064226 | 38 | 0 | 0.0 | 1.0 | 0.00 | 0.00 | 0.00 | 76 | 1018.1 |
| 20260502064105 | 38 | 0 | 0.0 | 1.0 | 0.00 | 0.00 | 0.00 | 76 | 1018.1 |
| 20260502064005 | 38 | 0 | 0.0 | 1.0 | 0.00 | 0.00 | 0.00 | 76 | 1018.1 |
| 20260502063926 | 38 | 0 | 0.0 | 1.0 | 0.00 | 0.00 | 0.00 | 76 | 1018.1 |
| 20260502063804 | 38 | 0 | 0.0 | 1.0 | 0.00 | 0.00 | 0.00 | 76 | 1018.2 |
| 20260502063705 | 38 | 0 | 0.0 | 1.0 | 0.00 | 0.00 | 0.00 | 76 | 1018.2 |
| 20260502063605 | 38 | 0 | 0.0 | 1.0 | 0.00 | 0.00 | 0.00 | 77 | 1018.2 |
| 20260502063526 | 38 | 0 | 0.0 | 1.0 | 0.00 | 0.00 | 0.00 | 77 | 1018.2 |
| 20260502063426 | 38 | 0 | 0.0 | 1.0 | 0.00 | 0.00 | 0.00 | 77 | 1018.2 |
| 20260502063326 | 38 | 0 | 0.0 | 1.0 | 0.00 | 0.00 | 0.00 | 77 | 1018.2 |
| 20260502063205 | 38 | 0 | 0.0 | 1.0 | 0.00 | 0.00 | 0.00 | 77 | 1018.2 |
| 20260502063105 | 38 | 0 | 0.0 | 1.0 | 0.00 | 0.00 | 0.00 | 77 | 1018.2 |
| 20260502063025 | 38 | 0 | 0.0 | 1.0 | 0.00 | 0.00 | 0.00 | 77 | 1018.2 |
| 20260502062904 | 38 | 0 | 0.0 | 1.0 | 0.00 | 0.00 | 0.00 | 77 | 1018.2 |
| 20260502062826 | 38 | 0 | 0.0 | 0.0 | 0.00 | 0.00 | 0.00 | 77 | 1018.2 |
| 20260502062704 | 38 | 0 | 0.0 | 0.0 | 0.00 | 0.00 | 0.00 | 77 | 1018.2 |
| 20260502062605 | 38 | 0 | 0.0 | 0.0 | 0.00 | 0.00 | 0.00 | 77 | 1018.2 |
| 20260502062526 | 38 | 0 | 0.0 | 0.0 | 0.00 | 0.00 | 0.00 | 77 | 1018.2 |
| 20260502062405 | 38 | 0 | 0.0 | 0.0 | 0.00 | 0.00 | 0.00 | 77 | 1018.2 |
| 20260502062306 | 38 | 0 | 0.0 | 0.0 | 0.00 | 0.00 | 0.00 | 77 | 1018.2 |
| 20260502062205 | 38 | 0 | 0.0 | 0.0 | 0.00 | 0.00 | 0.00 | 76 | 1018.2 |
| 20260502062104 | 38 | 0 | 0.0 | 0.0 | 0.00 | 0.00 | 0.00 | 76 | 1018.2 |
| 20260502062004 | 38 | 0 | 0.0 | 0.0 | 0.00 | 0.00 | 0.00 | 76 | 1018.2 |
| 20260502061904 | 38 | 0 | 0.0 | 0.0 | 0.00 | 0.00 | 0.00 | 76 | 1018.2 |
| 20260502061804 | 38 | 0 | 0.0 | 0.0 | 0.00 | 0.00 | 0.00 | 76 | 1018.2 |
| 20260502061705 | 38 | 0 | 0.0 | 0.0 | 0.00 | 0.00 | 0.00 | 76 | 1018.3 |
| 20260502061605 | 38 | 0 | 0.0 | 0.0 | 0.00 | 0.00 | 0.00 | 76 | 1018.3 |
| 20260502061505 | 38 | 0 | 0.0 | 0.0 | 0.00 | 0.00 | 0.00 | 76 | 1018.3 |
| 20260502061405 | 38 | 0 | 0.0 | 0.0 | 0.00 | 0.00 | 0.00 | 76 | 1018.2 |
| 20260502061305 | 38 | 0 | 0.0 | 0.0 | 0.00 | 0.00 | 0.00 | 76 | 1018.2 |
| 20260502061205 | 38 | 0 | 0.0 | 0.0 | 0.00 | 0.00 | 0.00 | 76 | 1018.3 |
| 20260502061125 | 38 | 0 | 0.0 | 0.0 | 0.00 | 0.00 | 0.00 | 76 | 1018.3 |
| 20260502061004 | 38 | 0 | 0.0 | 0.0 | 0.00 | 0.00 | 0.00 | 76 | 1018.2 |
| 20260502060905 | 38 | 0 | 0.0 | 0.0 | 0.00 | 0.00 | 0.00 | 76 | 1018.3 |
| 20260502060804 | 38 | 0 | 0.0 | 0.0 | 0.00 | 0.00 | 0.00 | 76 | 1018.3 |
| 20260502060705 | 38 | 0 | 0.0 | 0.0 | 0.00 | 0.00 | 0.00 | 75 | 1018.2 |
| 20260502060605 | 38 | 0 | 0.0 | 0.0 | 0.00 | 0.00 | 0.00 | 75 | 1018.3 |
| 20260502060505 | 38 | 0 | 0.0 | 0.0 | 0.00 | 0.00 | 0.00 | 75 | 1018.3 |
| 20260502060405 | 38 | 0 | 0.0 | 0.0 | 0.00 | 0.00 | 0.00 | 75 | 1018.2 |
| 20260502060304 | 38 | 0 | 0.0 | 1.0 | 0.00 | 0.00 | 0.00 | 75 | 1018.2 |
| 20260502060204 | 38 | 0 | 0.0 | 3.0 | 0.00 | 0.00 | 0.00 | 75 | 1018.2 |
| 20260502060104 | 38 | 0 | 0.0 | 3.0 | 0.00 | 0.00 | 0.00 | 74 | 1018.3 |
| 20260502060025 | 38 | 0 | 0.0 | 3.0 | 0.00 | 0.00 | 0.00 | 74 | 1018.3 |
| 20260502055904 | 38 | 0 | 0.0 | 3.0 | 0.00 | 0.00 | 0.00 | 74 | 1018.3 |
| 20260502055826 | 38 | 0 | 0.0 | 3.0 | 0.00 | 0.00 | 0.00 | 74 | 1018.3 |
| 20260502055706 | 38 | 0 | 0.0 | 3.0 | 0.00 | 0.00 | 0.00 | 74 | 1018.3 |
| 20260502055605 | 38 | 0 | 0.0 | 3.0 | 0.00 | 0.00 | 0.00 | 74 | 1018.2 |
| 20260502055505 | 38 | 0 | 0.0 | 3.0 | 0.00 | 0.00 | 0.00 | 74 | 1018.2 |
| 20260502055426 | 38 | 0 | 0.0 | 3.0 | 0.00 | 0.00 | 0.00 | 74 | 1018.3 |
| 20260502055306 | 38 | 0 | 0.0 | 3.0 | 0.00 | 0.00 | 0.00 | 74 | 1018.3 |
| 20260502055204 | 38 | 0 | 0.0 | 3.0 | 0.00 | 0.00 | 0.00 | 74 | 1018.3 |
| 20260502055104 | 38 | 0 | 0.0 | 1.0 | 0.00 | 0.00 | 0.00 | 74 | 1018.3 |
| 20260502055004 | 38 | 0 | 0.0 | 1.0 | 0.00 | 0.00 | 0.00 | 74 | 1018.3 |
| 20260502054905 | 38 | 0 | 0.0 | 1.0 | 0.00 | 0.00 | 0.00 | 74 | 1018.3 |
| 20260502054805 | 38 | 0 | 0.0 | 0.0 | 0.00 | 0.00 | 0.00 | 74 | 1018.3 |
| 20260502054726 | 38 | 0 | 0.0 | 0.0 | 0.00 | 0.00 | 0.00 | 74 | 1018.3 |
| 20260502054626 | 38 | 0 | 0.0 | 1.0 | 0.00 | 0.00 | 0.00 | 74 | 1018.2 |
| 20260502054505 | 38 | 0 | 0.0 | 1.0 | 0.00 | 0.00 | 0.00 | 74 | 1018.2 |
| 20260502054405 | 38 | 0 | 0.0 | 1.0 | 0.00 | 0.00 | 0.00 | 74 | 1018.3 |
| 20260502054304 | 38 | 0 | 0.0 | 1.0 | 0.00 | 0.00 | 0.00 | 74 | 1018.3 |
| 20260502054204 | 38 | 0 | 0.0 | 1.0 | 0.00 | 0.00 | 0.00 | 74 | 1018.3 |
| 20260502054104 | 38 | 0 | 0.0 | 1.0 | 0.00 | 0.00 | 0.00 | 74 | 1018.2 |
| 20260502054005 | 38 | 0 | 0.0 | 1.0 | 0.00 | 0.00 | 0.00 | 74 | 1018.2 |
| 20260502053905 | 38 | 0 | 0.0 | 1.0 | 0.00 | 0.00 | 0.00 | 74 | 1018.2 |
| 20260502053826 | 38 | 0 | 0.0 | 1.0 | 0.00 | 0.00 | 0.00 | 74 | 1018.2 |
| 20260502053705 | 38 | 0 | 0.0 | 1.0 | 0.00 | 0.00 | 0.00 | 74 | 1018.2 |
| 20260502053605 | 38 | 0 | 0.0 | 1.0 | 0.00 | 0.00 | 0.00 | 74 | 1018.2 |
| 20260502053505 | 38 | 0 | 0.0 | 1.0 | 0.00 | 0.00 | 0.00 | 73 | 1018.1 |
| 20260502053405 | 38 | 0 | 0.0 | 1.0 | 0.00 | 0.00 | 0.00 | 73 | 1018.1 |
| 20260502053325 | 38 | 0 | 0.0 | 1.0 | 0.00 | 0.00 | 0.00 | 73 | 1018.1 |
| 20260502053204 | 38 | 0 | 0.0 | 1.0 | 0.00 | 0.00 | 0.00 | 73 | 1018.1 |
| 20260502053104 | 38 | 0 | 0.0 | 1.0 | 0.00 | 0.00 | 0.00 | 73 | 1018.1 |
| 20260502053026 | 38 | 0 | 0.0 | 1.0 | 0.00 | 0.00 | 0.00 | 73 | 1018.1 |
| 20260502052905 | 38 | 0 | 0.0 | 1.0 | 0.00 | 0.00 | 0.00 | 73 | 1018.1 |
| 20260502052805 | 38 | 0 | 0.0 | 1.0 | 0.00 | 0.00 | 0.00 | 73 | 1018.1 |
| 20260502052705 | 38 | 0 | 0.0 | 1.0 | 0.00 | 0.00 | 0.00 | 73 | 1018.1 |
| 20260502052605 | 38 | 0 | 0.0 | 1.0 | 0.00 | 0.00 | 0.00 | 73 | 1018.1 |
| 20260502052504 | 38 | 0 | 0.0 | 1.0 | 0.00 | 0.00 | 0.00 | 73 | 1018.1 |
| 20260502052426 | 39 | 0 | 0.0 | 2.0 | 0.00 | 0.00 | 0.00 | 73 | 1018.1 |
| 20260502052306 | 39 | 0 | 0.0 | 2.0 | 0.00 | 0.00 | 0.00 | 73 | 1018.1 |
| 20260502052205 | 39 | 0 | 0.0 | 2.0 | 0.00 | 0.00 | 0.00 | 72 | 1018.1 |
| 20260502052126 | 39 | 0 | 0.0 | 2.0 | 0.00 | 0.00 | 0.00 | 72 | 1018.2 |
| 20260502052005 | 39 | 0 | 0.0 | 2.0 | 0.00 | 0.00 | 0.00 | 72 | 1018.2 |
| 20260502051905 | 39 | 0 | 0.0 | 2.0 | 0.00 | 0.00 | 0.00 | 72 | 1018.2 |
| 20260502051805 | 39 | 0 | 0.0 | 2.0 | 0.00 | 0.00 | 0.00 | 72 | 1018.2 |
| 20260502051704 | 39 | 0 | 0.0 | 2.0 | 0.00 | 0.00 | 0.00 | 72 | 1018.1 |
| 20260502051626 | 39 | 0 | 0.0 | 2.0 | 0.00 | 0.00 | 0.00 | 72 | 1018.1 |
| 20260502051505 | 38 | 0 | 0.0 | 2.0 | 0.00 | 0.00 | 0.00 | 72 | 1018.1 |
| 20260502051425 | 38 | 0 | 0.0 | 2.0 | 0.00 | 0.00 | 0.00 | 72 | 1018.1 |
| 20260502051304 | 38 | 0 | 0.0 | 2.0 | 0.00 | 0.00 | 0.00 | 72 | 1018.1 |
| 20260502051204 | 38 | 0 | 0.0 | 2.0 | 0.00 | 0.00 | 0.00 | 72 | 1018.1 |
| 20260502051105 | 38 | 0 | 0.0 | 2.0 | 0.00 | 0.00 | 0.00 | 72 | 1018.1 |
| 20260502051005 | 38 | 0 | 0.0 | 1.0 | 0.00 | 0.00 | 0.00 | 71 | 1018.1 |
| 20260502050905 | 38 | 0 | 0.0 | 1.0 | 0.00 | 0.00 | 0.00 | 71 | 1018.1 |
| 20260502050805 | 39 | 0 | 0.0 | 1.0 | 0.00 | 0.00 | 0.00 | 71 | 1018.1 |
| 20260502050704 | 38 | 0 | 0.0 | 1.0 | 0.00 | 0.00 | 0.00 | 71 | 1018.1 |
| 20260502050605 | 39 | 0 | 0.0 | 1.0 | 0.00 | 0.00 | 0.00 | 71 | 1018.1 |
| 20260502050525 | 39 | 0 | 0.0 | 1.0 | 0.00 | 0.00 | 0.00 | 71 | 1018.1 |
| 20260502050404 | 38 | 0 | 0.0 | 1.0 | 0.00 | 0.00 | 0.00 | 71 | 1018.1 |
| 20260502050304 | 38 | 0 | 0.0 | 1.0 | 0.00 | 0.00 | 0.00 | 70 | 1018.1 |
| 20260502050205 | 38 | 0 | 0.0 | 1.0 | 0.00 | 0.00 | 0.00 | 71 | 1018.1 |
| 20260502050105 | 38 | 0 | 0.0 | 1.0 | 0.00 | 0.00 | 0.00 | 71 | 1018.1 |
| 20260502050005 | 38 | 0 | 0.0 | 1.0 | 0.00 | 0.00 | 0.00 | 70 | 1018.1 |
| 20260502045904 | 38 | 0 | 0.0 | 1.0 | 0.00 | 0.00 | 0.00 | 70 | 1018.0 |
| 20260502045805 | 38 | 0 | 0.0 | 0.0 | 0.00 | 0.00 | 0.00 | 71 | 1018.0 |
| 20260502045726 | 38 | 0 | 0.0 | 0.0 | 0.00 | 0.00 | 0.00 | 70 | 1018.1 |
| 20260502045604 | 38 | 0 | 0.0 | 1.0 | 0.00 | 0.00 | 0.00 | 70 | 1018.1 |
| 20260502045504 | 38 | 0 | 0.0 | 1.0 | 0.00 | 0.00 | 0.00 | 70 | 1018.1 |
| 20260502045404 | 38 | 0 | 0.0 | 2.0 | 0.00 | 0.00 | 0.00 | 70 | 1018.1 |
| 20260502045306 | 38 | 0 | 0.0 | 2.0 | 0.00 | 0.00 | 0.00 | 70 | 1018.1 |
| 20260502045226 | 38 | 0 | 0.0 | 2.0 | 0.00 | 0.00 | 0.00 | 70 | 1018.1 |
| 20260502045104 | 38 | 0 | 0.0 | 2.0 | 0.00 | 0.00 | 0.00 | 70 | 1018.1 |
| 20260502045025 | 38 | 0 | 0.0 | 2.0 | 0.00 | 0.00 | 0.00 | 70 | 1018.1 |
| 20260502044905 | 38 | 0 | 0.0 | 2.0 | 0.00 | 0.00 | 0.00 | 69 | 1018.1 |
| 20260502044804 | 38 | 0 | 0.0 | 2.0 | 0.00 | 0.00 | 0.00 | 69 | 1018.1 |
| 20260502044725 | 38 | 0 | 0.0 | 2.0 | 0.00 | 0.00 | 0.00 | 69 | 1018.1 |
| 20260502044604 | 38 | 0 | 0.0 | 2.0 | 0.00 | 0.00 | 0.00 | 69 | 1018.1 |
| 20260502044505 | 38 | 0 | 0.0 | 2.0 | 0.00 | 0.00 | 0.00 | 70 | 1018.1 |
| 20260502044404 | 38 | 0 | 0.0 | 1.0 | 0.00 | 0.00 | 0.00 | 70 | 1018.1 |
| 20260502044326 | 38 | 0 | 0.0 | 1.0 | 0.00 | 0.00 | 0.00 | 70 | 1018.1 |
| 20260502044205 | 38 | 0 | 0.0 | 1.0 | 0.00 | 0.00 | 0.00 | 69 | 1018.1 |
| 20260502044104 | 38 | 0 | 0.0 | 3.0 | 0.00 | 0.00 | 0.00 | 69 | 1018.1 |
| 20260502044004 | 38 | 0 | 0.0 | 3.0 | 0.00 | 0.00 | 0.00 | 69 | 1018.1 |
| 20260502043904 | 38 | 0 | 0.0 | 3.0 | 0.00 | 0.00 | 0.00 | 69 | 1018.1 |
| 20260502043804 | 38 | 0 | 0.0 | 3.0 | 0.00 | 0.00 | 0.00 | 69 | 1018.1 |
| 20260502043704 | 38 | 0 | 0.0 | 3.0 | 0.00 | 0.00 | 0.00 | 69 | 1018.1 |
| 20260502043604 | 38 | 0 | 0.0 | 3.0 | 0.00 | 0.00 | 0.00 | 69 | 1018.1 |
| 20260502043525 | 38 | 0 | 0.0 | 3.0 | 0.00 | 0.00 | 0.00 | 69 | 1018.1 |
| 20260502043405 | 38 | 0 | 0.0 | 3.0 | 0.00 | 0.00 | 0.00 | 69 | 1018.1 |
| 20260502043305 | 38 | 0 | 0.0 | 3.0 | 0.00 | 0.00 | 0.00 | 68 | 1018.1 |
| 20260502043205 | 38 | 0 | 0.0 | 3.0 | 0.00 | 0.00 | 0.00 | 68 | 1018.1 |
| 20260502043105 | 38 | 0 | 0.0 | 2.0 | 0.00 | 0.00 | 0.00 | 69 | 1018.1 |
| 20260502043004 | 38 | 0 | 0.0 | 1.0 | 0.00 | 0.00 | 0.00 | 69 | 1018.1 |
| 20260502042904 | 38 | 0 | 0.0 | 1.0 | 0.00 | 0.00 | 0.00 | 69 | 1018.0 |
| 20260502042825 | 38 | 0 | 0.0 | 1.0 | 0.00 | 0.00 | 0.00 | 69 | 1018.0 |
| 20260502042725 | 38 | 0 | 0.0 | 1.0 | 0.00 | 0.00 | 0.00 | 69 | 1018.1 |
| 20260502042604 | 38 | 0 | 0.0 | 1.0 | 0.00 | 0.00 | 0.00 | 69 | 1018.1 |
| 20260502042505 | 39 | 0 | 0.0 | 1.0 | 0.00 | 0.00 | 0.00 | 69 | 1018.1 |
| 20260502042405 | 39 | 0 | 0.0 | 1.0 | 0.00 | 0.00 | 0.00 | 68 | 1018.0 |
| 20260502042326 | 39 | 0 | 0.0 | 1.0 | 0.00 | 0.00 | 0.00 | 68 | 1018.0 |
| 20260502042205 | 39 | 0 | 0.0 | 1.0 | 0.00 | 0.00 | 0.00 | 68 | 1018.0 |
| 20260502042104 | 39 | 0 | 0.0 | 2.0 | 0.00 | 0.00 | 0.00 | 68 | 1017.9 |
| 20260502042004 | 39 | 0 | 0.0 | 3.0 | 0.00 | 0.00 | 0.00 | 68 | 1017.9 |
| 20260502041925 | 39 | 0 | 0.0 | 3.0 | 0.00 | 0.00 | 0.00 | 68 | 1017.9 |
| 20260502041804 | 39 | 0 | 0.0 | 3.0 | 0.00 | 0.00 | 0.00 | 68 | 1018.0 |
| 20260502041704 | 39 | 0 | 0.0 | 3.0 | 0.00 | 0.00 | 0.00 | 68 | 1018.0 |
| 20260502041626 | 39 | 0 | 0.0 | 3.0 | 0.00 | 0.00 | 0.00 | 68 | 1018.1 |
| 20260502041505 | 39 | 0 | 0.0 | 3.0 | 0.00 | 0.00 | 0.00 | 67 | 1018.1 |
| 20260502041426 | 39 | 0 | 0.0 | 3.0 | 0.00 | 0.00 | 0.00 | 67 | 1018.1 |
| 20260502041304 | 39 | 0 | 0.0 | 3.0 | 0.00 | 0.00 | 0.00 | 67 | 1018.1 |
| 20260502041204 | 39 | 0 | 0.0 | 3.0 | 0.00 | 0.00 | 0.00 | 67 | 1018.1 |
| 20260502041104 | 39 | 0 | 0.0 | 3.0 | 0.00 | 0.00 | 0.00 | 67 | 1018.1 |
| 20260502041025 | 39 | 0 | 0.0 | 3.0 | 0.00 | 0.00 | 0.00 | 67 | 1018.1 |
| 20260502040904 | 39 | 0 | 0.0 | 2.0 | 0.00 | 0.00 | 0.00 | 67 | 1018.0 |
| 20260502040805 | 39 | 0 | 0.0 | 2.0 | 0.00 | 0.00 | 0.00 | 68 | 1018.0 |
| 20260502040705 | 39 | 0 | 0.0 | 2.0 | 0.00 | 0.00 | 0.00 | 68 | 1018.0 |
| 20260502040626 | 39 | 0 | 0.0 | 2.0 | 0.00 | 0.00 | 0.00 | 68 | 1018.0 |
| 20260502040505 | 39 | 0 | 0.0 | 2.0 | 0.00 | 0.00 | 0.00 | 68 | 1018.1 |
| 20260502040404 | 39 | 0 | 0.0 | 2.0 | 0.00 | 0.00 | 0.00 | 67 | 1018.1 |
| 20260502040304 | 39 | 0 | 0.0 | 2.0 | 0.00 | 0.00 | 0.00 | 67 | 1018.1 |
| 20260502040204 | 39 | 0 | 0.0 | 2.0 | 0.00 | 0.00 | 0.00 | 67 | 1018.1 |
| 20260502040104 | 39 | 0 | 0.0 | 2.0 | 0.00 | 0.00 | 0.00 | 67 | 1018.1 |
| 20260502040006 | 39 | 0 | 0.0 | 1.0 | 0.00 | 0.00 | 0.00 | 67 | 1018.1 |
| 20260502035905 | 39 | 0 | 0.0 | 2.0 | 0.00 | 0.00 | 0.00 | 67 | 1018.1 |
| 20260502035804 | 39 | 0 | 0.0 | 2.0 | 0.00 | 0.00 | 0.00 | 67 | 1018.1 |
| 20260502035704 | 39 | 0 | 0.0 | 2.0 | 0.00 | 0.00 | 0.00 | 67 | 1018.1 |
| 20260502035604 | 39 | 0 | 0.0 | 3.0 | 0.00 | 0.00 | 0.00 | 67 | 1018.1 |
| 20260502035504 | 39 | 0 | 0.0 | 3.0 | 0.00 | 0.00 | 0.00 | 67 | 1018.1 |
| 20260502035425 | 39 | 0 | 0.0 | 3.0 | 0.00 | 0.00 | 0.00 | 67 | 1018.1 |
| 20260502035306 | 39 | 0 | 0.0 | 3.0 | 0.00 | 0.00 | 0.00 | 66 | 1018.0 |
| 20260502035204 | 39 | 0 | 0.0 | 3.0 | 0.00 | 0.00 | 0.00 | 66 | 1018.0 |
| 20260502035104 | 39 | 0 | 0.0 | 3.0 | 0.00 | 0.00 | 0.00 | 66 | 1018.0 |
| 20260502035026 | 39 | 0 | 0.0 | 3.0 | 0.00 | 0.00 | 0.00 | 66 | 1018.0 |
| 20260502034905 | 39 | 0 | 0.0 | 3.0 | 0.00 | 0.00 | 0.00 | 67 | 1018.1 |
| 20260502034804 | 39 | 0 | 0.0 | 3.0 | 0.00 | 0.00 | 0.00 | 66 | 1018.0 |
| 20260502034705 | 39 | 0 | 0.0 | 3.0 | 0.00 | 0.00 | 0.00 | 67 | 1018.0 |
| 20260502034605 | 39 | 0 | 0.0 | 1.0 | 0.00 | 0.00 | 0.00 | 67 | 1018.0 |
| 20260502034504 | 39 | 0 | 0.0 | 1.0 | 0.00 | 0.00 | 0.00 | 67 | 1018.0 |
| 20260502034425 | 39 | 0 | 0.0 | 1.0 | 0.00 | 0.00 | 0.00 | 67 | 1018.0 |
| 20260502034304 | 39 | 0 | 0.0 | 1.0 | 0.00 | 0.00 | 0.00 | 66 | 1018.0 |
| 20260502034204 | 39 | 0 | 0.0 | 1.0 | 0.00 | 0.00 | 0.00 | 67 | 1018.0 |
| 20260502034105 | 39 | 0 | 0.0 | 1.0 | 0.00 | 0.00 | 0.00 | 67 | 1018.0 |
| 20260502034005 | 39 | 0 | 0.0 | 1.0 | 0.00 | 0.00 | 0.00 | 67 | 1018.0 |
| 20260502033925 | 39 | 0 | 0.0 | 1.0 | 0.00 | 0.00 | 0.00 | 67 | 1018.0 |
| 20260502033804 | 39 | 0 | 0.0 | 1.0 | 0.00 | 0.00 | 0.00 | 67 | 1018.0 |
| 20260502033704 | 39 | 0 | 0.0 | 1.0 | 0.00 | 0.00 | 0.00 | 67 | 1018.0 |
| 20260502033604 | 39 | 0 | 0.0 | 1.0 | 0.00 | 0.00 | 0.00 | 67 | 1018.1 |
| 20260502033504 | 39 | 0 | 0.0 | 1.0 | 0.00 | 0.00 | 0.00 | 66 | 1018.1 |
| 20260502033404 | 39 | 0 | 0.0 | 1.0 | 0.00 | 0.00 | 0.00 | 66 | 1018.1 |
| 20260502033304 | 39 | 0 | 0.0 | 1.0 | 0.00 | 0.00 | 0.00 | 66 | 1018.1 |
| 20260502033204 | 39 | 0 | 0.0 | 1.0 | 0.00 | 0.00 | 0.00 | 67 | 1018.1 |
| 20260502033105 | 39 | 0 | 0.0 | 1.0 | 0.00 | 0.00 | 0.00 | 67 | 1018.1 |
| 20260502033005 | 39 | 0 | 0.0 | 1.0 | 0.00 | 0.00 | 0.00 | 67 | 1018.1 |
| 20260502032905 | 39 | 0 | 0.0 | 1.0 | 0.00 | 0.00 | 0.00 | 67 | 1018.1 |
| 20260502032804 | 39 | 0 | 0.0 | 1.0 | 0.00 | 0.00 | 0.00 | 67 | 1018.1 |
| 20260502032704 | 39 | 0 | 0.0 | 1.0 | 0.00 | 0.00 | 0.00 | 66 | 1018.0 |
| 20260502032604 | 39 | 0 | 0.0 | 1.0 | 0.00 | 0.00 | 0.00 | 66 | 1018.0 |
| 20260502032504 | 39 | 0 | 0.0 | 1.0 | 0.00 | 0.00 | 0.00 | 67 | 1018.0 |
| 20260502032404 | 39 | 0 | 0.0 | 2.0 | 0.00 | 0.00 | 0.00 | 67 | 1018.0 |
| 20260502032306 | 39 | 0 | 0.0 | 2.0 | 0.00 | 0.00 | 0.00 | 66 | 1018.1 |
| 20260502032204 | 39 | 0 | 0.0 | 2.0 | 0.00 | 0.00 | 0.00 | 66 | 1018.0 |
| 20260502032125 | 39 | 0 | 0.0 | 2.0 | 0.00 | 0.00 | 0.00 | 66 | 1018.0 |
| 20260502032004 | 39 | 0 | 0.0 | 2.0 | 0.00 | 0.00 | 0.00 | 66 | 1018.1 |
| 20260502031904 | 39 | 0 | 0.0 | 2.0 | 0.00 | 0.00 | 0.00 | 66 | 1018.1 |
| 20260502031804 | 39 | 0 | 0.0 | 2.0 | 0.00 | 0.00 | 0.00 | 65 | 1018.1 |
| 20260502031704 | 39 | 0 | 0.0 | 2.0 | 0.00 | 0.00 | 0.00 | 65 | 1018.1 |
| 20260502031604 | 39 | 0 | 0.0 | 2.0 | 0.00 | 0.00 | 0.00 | 65 | 1018.1 |
| 20260502031504 | 39 | 0 | 0.0 | 2.0 | 0.00 | 0.00 | 0.00 | 65 | 1018.1 |
| 20260502031404 | 39 | 0 | 0.0 | 2.0 | 0.00 | 0.00 | 0.00 | 65 | 1018.1 |
| 20260502031304 | 39 | 0 | 0.0 | 2.0 | 0.00 | 0.00 | 0.00 | 66 | 1018.1 |
| 20260502031225 | 39 | 0 | 0.0 | 2.0 | 0.00 | 0.00 | 0.00 | 66 | 1018.1 |
| 20260502031105 | 39 | 0 | 0.0 | 1.0 | 0.00 | 0.00 | 0.00 | 66 | 1018.1 |
| 20260502031004 | 39 | 0 | 0.0 | 1.0 | 0.00 | 0.00 | 0.00 | 66 | 1018.1 |
| 20260502030904 | 39 | 0 | 0.0 | 1.0 | 0.00 | 0.00 | 0.00 | 66 | 1018.1 |
| 20260502030804 | 39 | 343 | 1.0 | 3.0 | 0.00 | 0.00 | 0.00 | 66 | 1018.1 |
| 20260502030704 | 39 | 344 | 1.0 | 3.0 | 0.00 | 0.00 | 0.00 | 66 | 1018.1 |
| 20260502030604 | 39 | 345 | 1.0 | 3.0 | 0.00 | 0.00 | 0.00 | 66 | 1018.1 |
| 20260502030504 | 39 | 345 | 1.0 | 3.0 | 0.00 | 0.00 | 0.00 | 65 | 1018.1 |
| 20260502030404 | 39 | 346 | 1.0 | 3.0 | 0.00 | 0.00 | 0.00 | 65 | 1018.1 |
| 20260502030304 | 39 | 345 | 1.0 | 3.0 | 0.00 | 0.00 | 0.00 | 65 | 1018.1 |
| 20260502030204 | 39 | 335 | 1.0 | 3.0 | 0.00 | 0.00 | 0.00 | 65 | 1018.0 |
| 20260502030104 | 39 | 334 | 1.0 | 3.0 | 0.00 | 0.00 | 0.00 | 65 | 1018.0 |
| 20260502030004 | 39 | 334 | 1.0 | 3.0 | 0.00 | 0.00 | 0.00 | 65 | 1018.0 |
| 20260502025904 | 39 | 327 | 1.0 | 6.0 | 0.00 | 0.00 | 0.00 | 65 | 1018.0 |
| 20260502025804 | 39 | 326 | 1.0 | 6.0 | 0.00 | 0.00 | 0.00 | 65 | 1018.0 |
| 20260502025704 | 39 | 325 | 1.0 | 6.0 | 0.00 | 0.00 | 0.00 | 65 | 1017.9 |
| 20260502025604 | 39 | 325 | 1.0 | 6.0 | 0.00 | 0.00 | 0.00 | 65 | 1017.9 |
| 20260502025505 | 39 | 326 | 1.0 | 6.0 | 0.00 | 0.00 | 0.00 | 65 | 1018.0 |
| 20260502025405 | 39 | 325 | 1.0 | 6.0 | 0.00 | 0.00 | 0.00 | 65 | 1017.9 |
| 20260502025325 | 39 | 323 | 1.0 | 6.0 | 0.00 | 0.00 | 0.00 | 65 | 1017.9 |
| 20260502025204 | 40 | 329 | 1.0 | 6.0 | 0.00 | 0.00 | 0.00 | 64 | 1017.9 |
| 20260502025104 | 40 | 330 | 2.0 | 6.0 | 0.00 | 0.00 | 0.00 | 64 | 1017.9 |
| 20260502025025 | 40 | 330 | 2.0 | 6.0 | 0.00 | 0.00 | 0.00 | 64 | 1017.9 |
| 20260502024904 | 40 | 331 | 1.0 | 5.0 | 0.00 | 0.00 | 0.00 | 64 | 1017.8 |
| 20260502024804 | 40 | 331 | 1.0 | 5.0 | 0.00 | 0.00 | 0.00 | 64 | 1017.8 |
| 20260502024704 | 40 | 334 | 2.0 | 5.0 | 0.00 | 0.00 | 0.00 | 64 | 1017.8 |
| 20260502024605 | 40 | 333 | 2.0 | 6.0 | 0.00 | 0.00 | 0.00 | 64 | 1017.8 |
| 20260502024504 | 40 | 333 | 2.0 | 6.0 | 0.00 | 0.00 | 0.00 | 64 | 1017.8 |
| 20260502024405 | 40 | 333 | 2.0 | 6.0 | 0.00 | 0.00 | 0.00 | 65 | 1017.9 |
| 20260502024304 | 40 | 333 | 2.0 | 6.0 | 0.00 | 0.00 | 0.00 | 65 | 1017.9 |
| 20260502024225 | 40 | 334 | 2.0 | 6.0 | 0.00 | 0.00 | 0.00 | 65 | 1017.8 |
| 20260502024104 | 40 | 335 | 1.0 | 6.0 | 0.00 | 0.00 | 0.00 | 64 | 1017.8 |
| 20260502024004 | 40 | 336 | 1.0 | 6.0 | 0.00 | 0.00 | 0.00 | 65 | 1017.8 |
| 20260502023904 | 40 | 335 | 1.0 | 6.0 | 0.00 | 0.00 | 0.00 | 64 | 1017.8 |
| 20260502023826 | 40 | 336 | 1.0 | 6.0 | 0.00 | 0.00 | 0.00 | 64 | 1017.8 |
| 20260502023704 | 40 | 333 | 1.0 | 6.0 | 0.00 | 0.00 | 0.00 | 64 | 1017.8 |
| 20260502023604 | 40 | 340 | 1.0 | 4.0 | 0.00 | 0.00 | 0.00 | 65 | 1017.8 |
| 20260502023504 | 40 | 0 | 0.0 | 4.0 | 0.00 | 0.00 | 0.00 | 65 | 1017.8 |
| 20260502023404 | 40 | 0 | 0.0 | 2.0 | 0.00 | 0.00 | 0.00 | 65 | 1017.8 |
| 20260502023325 | 40 | 0 | 0.0 | 2.0 | 0.00 | 0.00 | 0.00 | 65 | 1017.8 |
| 20260502023225 | 40 | 343 | 1.0 | 7.0 | 0.00 | 0.00 | 0.00 | 65 | 1017.8 |
| 20260502023104 | 40 | 338 | 1.0 | 7.0 | 0.00 | 0.00 | 0.00 | 65 | 1017.8 |
| 20260502023004 | 40 | 342 | 1.0 | 7.0 | 0.00 | 0.00 | 0.00 | 65 | 1017.8 |
| 20260502022904 | 40 | 344 | 1.0 | 7.0 | 0.00 | 0.00 | 0.00 | 65 | 1017.8 |
| 20260502022804 | 40 | 342 | 1.0 | 7.0 | 0.00 | 0.00 | 0.00 | 65 | 1017.8 |
| 20260502022725 | 40 | 341 | 1.0 | 7.0 | 0.00 | 0.00 | 0.00 | 65 | 1017.8 |
| 20260502022625 | 40 | 341 | 2.0 | 7.0 | 0.00 | 0.00 | 0.00 | 65 | 1017.8 |
| 20260502022525 | 40 | 341 | 2.0 | 7.0 | 0.00 | 0.00 | 0.00 | 64 | 1017.8 |
| 20260502022404 | 40 | 340 | 2.0 | 7.0 | 0.00 | 0.00 | 0.00 | 64 | 1017.8 |
| 20260502022306 | 40 | 342 | 2.0 | 6.0 | 0.00 | 0.00 | 0.00 | 64 | 1017.8 |
| 20260502022225 | 40 | 343 | 2.0 | 6.0 | 0.00 | 0.00 | 0.00 | 64 | 1017.8 |
| 20260502022104 | 40 | 346 | 1.0 | 6.0 | 0.00 | 0.00 | 0.00 | 65 | 1017.8 |
| 20260502022005 | 40 | 346 | 1.0 | 6.0 | 0.00 | 0.00 | 0.00 | 64 | 1017.8 |
| 20260502021904 | 40 | 348 | 1.0 | 6.0 | 0.00 | 0.00 | 0.00 | 64 | 1017.8 |
| 20260502021804 | 40 | 353 | 1.0 | 6.0 | 0.00 | 0.00 | 0.00 | 64 | 1017.8 |
| 20260502021704 | 40 | 0 | 0.0 | 6.0 | 0.00 | 0.00 | 0.00 | 65 | 1017.8 |
| 20260502021604 | 40 | 0 | 0.0 | 3.0 | 0.00 | 0.00 | 0.00 | 65 | 1017.7 |
| 20260502021504 | 40 | 0 | 0.0 | 3.0 | 0.00 | 0.00 | 0.00 | 65 | 1017.7 |
| 20260502021404 | 40 | 345 | 1.0 | 5.0 | 0.00 | 0.00 | 0.00 | 65 | 1017.7 |
| 20260502021304 | 40 | 339 | 1.0 | 5.0 | 0.00 | 0.00 | 0.00 | 65 | 1017.8 |
| 20260502021204 | 40 | 0 | 0.0 | 5.0 | 0.00 | 0.00 | 0.00 | 65 | 1017.8 |
| 20260502021105 | 40 | 0 | 0.0 | 5.0 | 0.00 | 0.00 | 0.00 | 65 | 1017.7 |
| 20260502021004 | 40 | 334 | 1.0 | 5.0 | 0.00 | 0.00 | 0.00 | 65 | 1017.7 |
| 20260502020925 | 40 | 331 | 1.0 | 5.0 | 0.00 | 0.00 | 0.00 | 65 | 1017.7 |
| 20260502020804 | 40 | 327 | 1.0 | 5.0 | 0.00 | 0.00 | 0.00 | 65 | 1017.7 |
| 20260502020704 | 40 | 329 | 1.0 | 5.0 | 0.00 | 0.00 | 0.00 | 65 | 1017.7 |
| 20260502020625 | 40 | 328 | 1.0 | 5.0 | 0.00 | 0.00 | 0.00 | 65 | 1017.7 |
| 20260502020504 | 40 | 330 | 1.0 | 5.0 | 0.00 | 0.00 | 0.00 | 65 | 1017.7 |
| 20260502020425 | 40 | 338 | 1.0 | 5.0 | 0.00 | 0.00 | 0.00 | 65 | 1017.7 |
| 20260502020304 | 40 | 342 | 1.0 | 5.0 | 0.00 | 0.00 | 0.00 | 65 | 1017.7 |
| 20260502020204 | 40 | 339 | 2.0 | 6.0 | 0.00 | 0.00 | 0.00 | 65 | 1017.6 |
| 20260502020125 | 40 | 340 | 2.0 | 6.0 | 0.00 | 0.00 | 0.00 | 64 | 1017.6 |
| 20260502020025 | 40 | 341 | 2.0 | 6.0 | 0.00 | 0.00 | 0.00 | 64 | 1017.6 |
| 20260502015904 | 40 | 342 | 2.0 | 6.0 | 0.00 | 0.00 | 0.00 | 64 | 1017.6 |
| 20260502015804 | 40 | 343 | 2.0 | 6.0 | 0.00 | 0.00 | 0.00 | 64 | 1017.6 |
| 20260502015725 | 40 | 345 | 2.0 | 6.0 | 0.00 | 0.00 | 0.00 | 64 | 1017.6 |
| 20260502015604 | 40 | 341 | 2.0 | 6.0 | 0.00 | 0.00 | 0.00 | 64 | 1017.6 |
| 20260502015525 | 40 | 339 | 2.0 | 6.0 | 0.00 | 0.00 | 0.00 | 64 | 1017.6 |
| 20260502015404 | 40 | 330 | 2.0 | 6.0 | 0.00 | 0.00 | 0.00 | 64 | 1017.6 |
| 20260502015305 | 40 | 331 | 2.0 | 6.0 | 0.00 | 0.00 | 0.00 | 64 | 1017.6 |
| 20260502015204 | 40 | 331 | 2.0 | 6.0 | 0.00 | 0.00 | 0.00 | 64 | 1017.6 |
| 20260502015104 | 40 | 336 | 2.0 | 6.0 | 0.00 | 0.00 | 0.00 | 64 | 1017.6 |
| 20260502015004 | 40 | 337 | 2.0 | 6.0 | 0.00 | 0.00 | 0.00 | 64 | 1017.6 |
| 20260502014904 | 40 | 336 | 1.0 | 6.0 | 0.00 | 0.00 | 0.00 | 64 | 1017.6 |
| 20260502014804 | 40 | 338 | 1.0 | 6.0 | 0.00 | 0.00 | 0.00 | 63 | 1017.6 |
| 20260502014704 | 40 | 333 | 1.0 | 6.0 | 0.00 | 0.00 | 0.00 | 64 | 1017.6 |
| 20260502014625 | 40 | 336 | 1.0 | 6.0 | 0.00 | 0.00 | 0.00 | 63 | 1017.6 |
| 20260502014504 | 40 | 341 | 1.0 | 4.0 | 0.00 | 0.00 | 0.00 | 64 | 1017.6 |
| 20260502014404 | 40 | 346 | 1.0 | 4.0 | 0.00 | 0.00 | 0.00 | 64 | 1017.5 |
| 20260502014304 | 40 | 346 | 1.0 | 4.0 | 0.00 | 0.00 | 0.00 | 64 | 1017.5 |
| 20260502014225 | 40 | 347 | 1.0 | 4.0 | 0.00 | 0.00 | 0.00 | 64 | 1017.6 |
| 20260502014104 | 40 | 336 | 1.0 | 4.0 | 0.00 | 0.00 | 0.00 | 63 | 1017.6 |
| 20260502014025 | 40 | 335 | 1.0 | 4.0 | 0.00 | 0.00 | 0.00 | 63 | 1017.6 |
| 20260502013904 | 40 | 336 | 1.0 | 4.0 | 0.00 | 0.00 | 0.00 | 63 | 1017.5 |
| 20260502013804 | 40 | 335 | 1.0 | 4.0 | 0.00 | 0.00 | 0.00 | 63 | 1017.5 |
| 20260502013704 | 40 | 0 | 0.0 | 4.0 | 0.00 | 0.00 | 0.00 | 63 | 1017.5 |
| 20260502013604 | 40 | 0 | 0.0 | 2.0 | 0.00 | 0.00 | 0.00 | 63 | 1017.5 |